GFSGL_sfc_wetblb_096.txt.gz
Wetbulb
51.53 53.43 52.77 53.75 54.27 54.51 54.71 55.38 55.81 56.21 56.20 56.91 57.84 58.22 58.79 59.23 60.14 60.23 60.63 61.49 61.48 62.16 63.58 64.15 64.37 65.17 65.24 66.04 67.00 67.27 65.95 64.64 63.57 65.39 63.69 65.15 64.72 65.63 65.17 65.06 65.22 65.75 64.92
52.38 52.21 52.70 54.15 54.55 54.80 55.40 55.54 55.78 55.66 55.84 56.79 57.55 57.98 58.59 59.34 60.01 59.51 60.15 61.84 61.51 61.55 62.14 63.08 64.47 65.71 65.48 65.79 66.34 66.06 65.53 65.41 64.40 62.43 65.46 64.37 64.21 63.31 63.96 63.27 63.77 65.80 65.75
52.48 52.20 51.89 52.33 53.57 54.17 55.29 56.06 55.34 55.78 55.70 56.06 56.96 57.33 58.07 59.22 59.93 60.32 61.08 61.09 61.01 61.22 61.77 62.29 62.57 63.59 64.61 65.56 65.59 65.20 65.02 64.99 65.07 64.27 64.78 63.88 62.41 62.39 61.74 62.59 62.89 64.99 64.22
50.04 51.28 51.38 51.75 52.92 54.06 55.06 55.89 55.94 56.14 55.97 55.80 56.15 57.10 58.16 58.99 60.04 60.27 59.85 59.34 59.75 60.62 61.07 61.72 62.44 62.97 62.95 64.37 65.08 65.19 64.43 63.99 64.17 63.56 62.97 61.63 61.30 61.22 61.40 61.29 61.26 62.18 62.58
49.41 48.63 49.03 50.64 51.75 53.10 53.93 54.66 55.43 55.49 55.71 56.01 55.76 56.17 57.56 58.29 58.55 58.40 58.75 58.95 58.84 58.18 59.04 60.86 62.71 61.93 60.08 59.82 61.47 62.54 64.59 64.11 64.50 62.10 61.69 60.31 59.92 59.95 60.86 61.36 62.01 60.95 61.28
48.36 48.55 50.20 50.51 51.57 51.63 52.50 53.21 53.46 53.65 53.94 54.75 54.61 55.36 55.72 56.68 51.85 51.35 56.34 57.93 57.55 57.15 56.55 58.40 60.62 59.34 58.95 55.59 55.29 55.19 61.13 64.43 62.69 61.85 61.81 60.52 60.07 60.16 60.62 60.89 60.56 59.13 58.99
47.13 48.16 49.22 50.11 50.65 50.80 52.12 52.62 52.86 52.76 53.04 53.08 54.07 54.90 55.20 56.19 49.04 48.63 50.24 55.55 54.69 55.08 56.03 56.56 56.49 58.42 57.94 60.82 58.10 56.21 54.11 54.21 57.62 63.00 62.58 61.31 60.83 60.69 61.02 59.47 59.60 60.01 60.40
46.13 47.14 48.13 48.97 49.37 50.41 50.83 50.93 51.37 52.21 52.07 52.16 53.09 54.21 54.59 54.91 47.96 46.42 47.51 53.65 53.74 54.85 54.69 54.54 55.84 57.59 59.11 58.67 60.13 61.49 64.29 60.30 59.20 60.50 64.58 63.45 63.43 62.74 62.39 61.79 61.88 60.80 60.15
43.43 44.93 46.47 47.73 48.22 49.22 49.07 49.78 50.89 50.62 50.97 51.27 52.26 52.33 52.61 53.57 46.30 45.46 47.04 52.07 52.41 52.73 53.70 54.41 54.75 54.79 49.93 46.60 55.10 56.71 61.02 63.19 52.56 52.21 54.37 52.39 49.67 50.58 56.81 61.70 59.61 58.79 58.43
42.40 43.93 46.05 47.50 47.97 48.35 49.12 49.20 49.78 51.00 51.02 51.57 51.25 51.90 50.66 52.20 45.50 44.30 46.85 52.41 51.65 51.45 52.63 52.85 47.84 50.49 46.48 45.10 52.35 56.56 59.12 62.08 57.51 56.22 57.37 53.28 52.37 52.52 50.74 63.68 61.52 60.54 59.06
43.62 44.47 44.74 45.89 46.25 47.35 47.99 48.88 49.42 49.53 50.60 50.96 51.08 51.90 52.10 50.94 51.34 43.48 43.54 52.66 51.80 50.82 51.06 51.33 52.48 46.12 44.60 43.26 43.15 53.66 57.20 61.16 56.06 58.91 59.20 58.53 59.10 58.13 59.12 61.17 63.18 62.51 59.58
42.20 41.89 42.23 43.14 44.19 45.19 45.20 46.22 47.12 47.34 47.39 48.23 49.50 50.30 51.83 52.68 47.57 43.37 42.90 46.09 48.02 50.93 50.68 51.38 51.86 44.53 43.32 42.58 43.61 45.31 44.24 50.54 59.74 59.42 58.51 57.77 58.41 58.03 59.83 60.82 60.91 60.97 61.30
42.74 42.58 43.05 43.70 43.85 44.30 44.32 44.86 45.31 46.08 45.81 45.89 46.42 46.87 48.59 51.14 51.12 44.41 42.80 42.27 43.79 50.31 51.98 49.20 44.85 42.77 40.56 42.85 43.31 43.15 43.69 58.29 59.22 58.31 57.75 57.57 58.54 58.81 58.80 58.99 60.05 60.38 60.70
41.56 41.96 42.79 42.82 43.19 43.87 43.97 44.41 44.00 44.18 44.43 45.08 45.77 47.12 48.77 49.81 49.80 49.34 46.90 45.78 44.59 47.63 47.24 49.40 47.30 45.06 42.03 46.41 50.36 48.55 54.08 60.07 59.19 58.45 57.13 58.13 58.19 58.34 58.43 59.19 58.61 59.23 59.00
41.97 42.60 42.96 43.71 43.84 43.89 44.41 44.90 45.72 46.96 46.06 45.87 46.86 48.01 48.36 48.77 48.50 46.43 46.78 47.75 48.14 48.14 48.63 50.51 51.48 53.08 52.99 52.89 54.12 54.00 58.99 58.65 58.09 57.42 57.04 57.12 57.26 57.54 57.61 58.99 58.28 58.24 58.91
42.18 43.12 44.12 44.55 44.81 44.75 44.61 45.08 43.26 43.70 43.68 42.49 42.30 46.22 48.71 45.74 42.55 42.02 41.98 42.20 42.15 41.77 49.40 51.22 51.82 52.73 52.87 53.14 54.80 56.30 57.77 56.45 57.94 57.62 57.96 58.06 57.31 57.12 57.69 59.17 60.03 59.52 58.34
43.02 44.38 45.49 45.65 46.41 46.73 45.96 45.42 44.77 44.95 42.85 42.49 42.14 41.07 41.42 43.69 41.28 41.17 40.93 40.83 40.29 41.86 50.43 50.63 51.30 52.60 53.93 55.03 57.11 57.75 57.55 58.57 58.75 58.16 57.98 58.52 58.36 58.47 57.16 58.27 58.25 57.42 56.11
43.49 41.97 41.50 41.41 41.76 42.75 43.84 45.08 47.28 46.80 45.05 43.36 41.44 42.63 40.57 39.86 40.07 40.59 40.54 39.77 41.39 42.88 49.15 49.27 50.66 54.34 55.90 57.58 58.12 58.56 57.75 58.29 58.58 57.86 58.65 58.90 58.83 57.92 56.85 57.80 57.32 57.22 57.08
39.33 39.82 40.57 41.58 42.94 43.94 47.93 48.24 48.13 48.68 46.31 45.02 45.44 40.70 41.11 38.88 39.80 39.28 39.59 48.29 47.81 48.20 48.79 50.29 51.71 55.54 58.04 59.07 58.86 58.22 57.60 58.25 57.67 58.44 59.10 58.90 57.77 56.68 56.56 57.14 55.75 47.30 50.39
38.73 38.56 39.25 43.14 49.48 48.89 48.40 48.02 47.98 47.68 45.85 45.57 45.00 44.58 44.16 41.86 43.57 43.37 47.50 49.35 50.05 50.50 50.75 51.40 54.54 58.46 58.20 58.32 58.20 58.18 57.92 56.76 58.19 58.00 57.81 58.37 57.04 56.95 55.99 55.70 55.58 54.45 55.15
39.05 40.91 40.53 53.25 50.48 48.28 48.02 47.50 47.17 46.42 45.74 45.60 46.07 45.17 42.21 47.08 46.11 47.39 48.51 49.65 50.28 49.68 52.18 57.08 58.31 57.76 58.23 58.65 58.20 57.79 57.90 57.53 57.65 57.58 57.69 58.30 56.77 55.55 55.78 56.68 55.12 54.28 55.01
40.06 45.19 56.61 52.02 52.07 49.94 48.38 47.67 47.01 46.90 47.01 46.91 46.19 43.57 38.00 49.15 49.04 49.14 49.53 49.59 49.86 50.55 59.29 59.20 58.21 58.48 59.03 58.71 58.71 58.31 58.15 57.77 57.85 57.59 58.05 58.07 56.62 55.56 56.51 56.02 55.43 54.78 55.05
44.69 55.47 55.17 54.79 54.87 46.83 50.72 50.35 48.94 48.45 48.26 47.99 46.76 46.07 48.25 48.52 48.71 48.99 49.45 51.76 56.32 57.83 58.38 58.34 58.67 58.37 59.47 59.90 60.18 60.00 58.96 58.25 58.69 59.44 58.18 57.28 56.37 56.58 56.99 56.09 55.99 55.92 56.13
55.77 55.35 53.97 53.17 52.95 52.42 51.83 51.40 50.92 46.60 49.98 48.56 47.08 46.91 48.08 51.89 52.93 53.92 54.28 54.84 54.62 55.38 57.13 58.58 58.55 57.98 58.30 59.16 59.93 59.54 59.40 59.11 59.31 59.53 59.21 58.07 57.19 54.05 56.86 56.58 54.90 52.93 51.76
55.65 54.35 53.55 52.90 51.95 51.17 50.50 49.62 49.10 49.12 49.26 49.10 48.11 47.99 48.38 49.23 49.09 49.12 49.68 50.61 50.24 50.67 51.71 53.52 55.88 56.79 57.84 58.39 56.45 56.05 43.05 40.25 56.32 49.60 58.77 57.92 56.30 55.67 54.81 54.22 51.63 50.92 47.96
53.13 52.08 51.10 50.60 50.18 49.02 48.07 46.98 46.29 45.99 45.27 45.09 45.14 45.06 45.23 45.59 45.95 46.27 46.62 46.58 46.03 46.08 46.58 47.97 49.23 50.75 51.41 50.88 48.74 39.84 37.89 38.98 46.05 42.97 55.03 54.76 52.44 50.08 47.78 44.37 42.34 42.71 41.82

GFSGL_sfc_wetblb_102.txt.gz
Wetbulb
60.36 62.43 62.74 63.84 64.06 65.94 66.87 67.54 66.76 66.16 65.16 63.40 63.96 63.97 64.24 64.74 65.87 66.74 67.14 66.49 66.56 67.97 68.77 68.40 68.75 70.80 69.10 68.62 68.43 67.83 66.25 65.47 62.66 63.66 64.68 66.52 67.73 70.85 71.14 71.84 71.09 72.10 70.91
59.19 59.92 61.60 62.38 62.44 62.40 62.85 63.90 64.80 65.11 65.07 64.28 63.99 63.59 63.14 63.25 64.50 64.93 64.63 64.30 64.70 65.21 66.24 66.91 66.44 66.79 68.22 68.71 67.32 67.62 66.99 67.13 63.84 62.37 64.79 65.27 68.80 70.89 71.36 71.07 70.55 70.82 68.84
56.76 57.45 58.86 60.40 62.24 62.77 63.20 63.75 63.34 63.53 64.73 64.35 63.64 62.76 62.77 62.88 63.23 63.87 63.43 63.04 63.28 64.02 64.49 64.96 65.38 65.78 65.85 65.78 66.49 65.61 65.70 66.10 66.46 64.91 63.76 66.59 67.90 69.81 68.99 69.78 68.41 68.50 67.81
55.65 54.89 56.09 56.50 57.61 60.62 62.74 62.54 63.06 62.91 62.28 63.29 63.88 62.87 62.41 62.80 62.73 63.01 62.91 62.94 62.90 62.78 63.63 63.63 63.42 63.71 64.17 64.53 65.14 65.46 65.70 65.11 65.85 64.97 64.60 65.08 67.65 69.28 68.39 65.33 64.87 65.58 64.82
53.81 53.99 53.65 56.13 57.14 57.31 59.07 60.79 61.81 60.83 61.05 61.66 62.56 63.37 63.10 62.34 61.67 62.49 62.58 62.94 63.04 63.05 63.27 62.93 63.76 62.06 59.22 60.14 61.77 62.75 63.62 63.13 62.63 62.35 62.52 64.19 64.39 65.92 64.48 65.72 63.40 64.39 64.41
52.22 51.77 53.48 54.78 55.52 57.07 58.72 58.59 59.74 58.86 59.81 59.96 60.39 61.61 63.59 62.01 53.07 52.23 59.55 62.97 63.02 63.02 62.64 63.19 63.06 58.49 58.10 54.69 54.08 54.35 56.94 60.12 61.20 61.46 62.95 63.41 65.58 67.05 66.54 65.39 62.88 62.22 61.37
51.34 50.78 51.44 53.26 53.69 54.97 56.65 58.03 59.08 59.90 60.19 59.77 60.40 61.31 63.92 66.05 49.59 48.83 51.06 64.47 63.52 63.46 63.46 63.28 62.40 60.72 59.11 61.16 54.30 51.97 52.61 51.88 53.07 61.02 61.46 63.91 65.32 67.73 67.35 65.36 62.88 62.75 62.30
50.40 50.89 51.44 52.03 52.34 53.23 54.42 55.97 57.58 58.92 59.73 60.24 60.73 61.91 62.58 64.08 49.59 46.12 48.54 63.88 64.98 65.40 64.35 63.89 63.55 62.42 61.99 61.52 61.27 60.23 59.94 60.46 61.28 61.56 63.31 64.98 67.20 68.87 66.83 64.66 63.21 63.22 64.37
48.89 50.61 51.30 51.48 51.23 51.78 52.19 53.85 56.06 56.58 57.87 59.19 60.06 60.94 61.60 62.15 48.41 46.12 49.45 61.79 62.74 63.82 63.07 63.72 63.31 62.54 54.18 47.44 60.04 59.10 59.21 59.93 55.87 50.07 49.76 49.26 47.26 49.08 57.22 63.36 61.58 61.78 63.26
47.66 48.62 49.71 50.50 50.97 50.76 51.70 52.74 53.99 55.26 56.05 57.05 57.81 60.37 57.00 61.43 50.31 45.09 50.15 60.64 61.44 61.29 64.19 64.10 51.18 58.34 48.35 45.67 59.77 59.34 58.19 59.03 59.85 59.56 60.06 58.43 54.12 59.36 49.98 61.46 62.10 62.52 64.61
48.05 48.23 48.20 49.67 50.24 51.02 51.33 52.17 52.62 53.24 54.35 55.58 56.50 59.28 59.88 59.60 59.73 44.96 44.26 60.26 59.60 60.57 60.66 61.98 62.32 47.79 46.05 42.94 47.64 59.99 57.91 58.01 55.85 58.33 57.76 59.54 63.49 61.98 60.13 59.61 62.77 63.53 63.93
46.83 46.12 46.09 46.77 47.73 49.04 50.15 51.00 52.26 52.71 52.53 53.29 54.49 56.00 57.17 60.45 50.94 45.78 43.70 45.54 53.56 60.82 61.46 61.67 62.11 45.97 45.13 43.34 44.77 46.98 43.67 45.07 56.71 57.36 57.13 57.62 62.39 59.15 60.72 61.84 62.87 65.29 65.52
45.43 45.08 45.68 46.18 46.56 48.01 48.16 48.68 48.79 50.30 49.74 50.76 51.69 53.12 54.66 57.21 59.17 46.61 43.48 42.95 45.34 56.73 61.26 57.47 50.25 43.62 42.93 44.01 41.66 41.19 40.32 55.48 56.84 56.87 56.17 58.32 62.12 60.57 61.07 61.54 62.83 64.50 66.86
42.83 43.45 44.65 44.62 45.23 46.64 47.29 47.93 47.77 47.86 48.67 49.11 50.04 51.20 52.57 54.78 56.99 59.28 55.86 51.68 45.14 50.31 52.61 57.58 54.45 52.20 49.59 53.61 53.64 49.22 55.95 58.02 57.61 56.68 58.37 61.28 62.09 60.23 60.00 61.03 61.40 63.13 63.92
41.21 41.79 42.12 42.83 43.48 44.05 45.47 46.02 46.53 48.40 48.68 49.67 50.26 50.84 51.10 52.08 54.00 52.49 54.50 57.46 56.67 53.46 54.40 57.40 57.35 57.30 57.02 57.42 57.84 58.15 58.63 58.57 58.16 57.94 58.29 60.07 59.38 58.42 58.52 60.83 61.82 62.30 62.26
39.33 40.11 41.16 42.04 42.71 43.03 43.15 43.76 42.43 42.36 41.82 41.17 41.33 46.52 49.87 45.84 42.25 42.70 42.64 42.25 44.42 43.21 53.49 55.23 56.16 56.28 56.34 56.47 56.41 57.04 58.04 56.19 58.65 59.01 60.21 59.18 58.28 57.84 58.46 60.64 61.32 61.75 61.85
40.12 40.18 40.56 40.32 40.95 40.99 41.61 42.15 41.38 43.04 41.51 41.00 39.83 40.28 39.78 41.89 39.22 39.93 40.09 41.14 40.82 42.72 54.29 54.44 55.60 56.70 56.08 56.82 56.72 56.77 56.92 57.62 59.48 59.48 59.65 58.88 58.88 58.93 57.45 60.03 60.61 62.16 60.98
40.42 39.46 40.17 39.91 40.11 40.51 41.30 42.35 42.55 42.58 42.55 42.51 40.98 41.25 40.16 39.84 39.16 39.05 39.02 40.21 50.49 48.51 53.36 53.44 53.89 56.41 56.09 56.56 56.67 57.07 57.31 57.34 59.48 59.49 59.15 59.61 59.61 58.63 60.66 61.11 61.17 62.09 61.08
38.06 38.36 39.00 39.63 39.99 40.40 40.79 41.26 41.54 41.35 44.35 44.33 44.68 41.20 41.26 39.30 39.06 38.48 38.41 48.18 51.19 51.96 52.71 54.39 55.42 56.07 56.88 57.51 57.62 57.98 57.34 57.94 59.63 59.28 60.10 60.19 59.91 60.66 61.71 62.22 61.68 50.83 54.84
36.24 36.14 36.53 37.63 38.12 38.82 39.59 39.78 40.24 40.51 41.13 42.41 44.49 44.70 44.24 41.07 41.75 43.89 43.78 48.79 50.42 52.82 53.71 54.80 56.07 57.05 57.79 57.88 58.01 57.50 57.39 58.79 59.30 60.09 59.96 59.85 61.08 63.17 62.33 61.79 61.22 60.03 61.00
36.74 38.13 36.46 38.67 39.54 40.94 42.57 42.43 41.65 42.06 42.47 43.08 43.71 45.76 41.19 44.24 44.23 46.25 48.35 50.73 50.87 53.43 53.00 54.90 56.26 57.25 57.67 57.71 57.45 57.47 59.15 59.19 59.54 61.22 60.56 60.31 63.00 61.45 61.32 60.59 60.84 61.41 61.34
39.05 39.81 41.20 44.57 48.63 48.53 48.38 48.77 44.71 44.18 44.58 45.39 46.18 42.77 36.83 46.81 46.45 47.82 49.43 51.36 51.62 53.95 54.46 54.76 54.76 56.70 56.95 56.85 57.48 58.44 58.84 58.61 59.93 60.76 60.09 61.58 61.63 60.66 60.94 60.49 59.89 60.47 60.09
40.44 44.33 47.57 49.92 48.99 44.82 48.34 48.22 47.54 47.38 46.89 46.16 45.03 43.48 44.02 47.84 47.94 49.52 50.90 52.51 52.73 53.29 54.24 55.37 56.08 56.56 57.59 58.01 59.50 59.99 59.42 59.49 60.64 61.41 61.81 61.97 61.10 60.96 60.86 59.54 58.80 58.17 57.42
53.74 53.04 52.40 52.64 49.81 49.32 48.66 48.03 47.44 43.80 46.72 46.73 47.00 47.76 49.30 50.08 50.43 50.66 53.10 52.45 53.96 55.13 55.85 57.44 57.28 57.21 57.32 59.22 60.51 61.57 61.89 63.46 63.78 64.62 62.96 61.86 60.72 56.98 60.03 60.18 59.80 59.15 57.49
52.15 51.29 50.15 50.96 50.71 50.56 49.92 49.48 49.43 49.65 49.39 49.61 50.14 51.61 51.65 52.08 52.57 52.34 52.84 54.79 56.13 56.32 56.22 56.00 55.34 56.75 60.36 60.99 60.82 62.52 54.78 44.00 61.73 54.92 63.66 62.46 61.30 61.06 60.47 57.32 55.61 53.83 49.00
50.67 49.03 47.78 47.00 48.20 48.90 49.44 48.97 48.48 48.83 48.66 49.60 51.25 52.01 53.03 53.32 53.94 54.71 55.31 55.81 54.67 53.96 53.72 57.43 60.86 60.95 61.10 60.73 61.96 49.10 40.38 40.65 54.55 44.81 61.29 62.69 61.64 59.94 58.64 55.00 50.85 47.96 46.32

GFSGL_sfc_wetblb_105.txt.gz
Wetbulb
60.61 61.33 62.12 63.44 64.58 65.51 66.84 67.76 69.59 71.52 71.26 69.68 69.24 68.96 68.27 69.26 68.04 68.38 68.80 68.39 68.12 70.39 71.15 69.01 69.37 71.13 68.56 69.56 67.11 66.97 64.12 65.20 63.86 65.10 66.47 70.24 71.48 69.97 69.20 69.72 70.40 71.15 71.36
59.05 59.20 60.32 62.19 63.84 64.04 64.61 65.69 67.50 67.96 68.74 67.40 64.83 65.35 63.23 62.68 62.99 62.92 63.71 64.31 65.28 66.32 66.77 68.64 67.95 67.34 70.19 70.28 68.97 69.89 67.74 68.36 65.40 64.60 66.42 66.32 67.89 69.34 69.78 70.77 70.05 70.39 70.45
58.49 58.34 58.64 59.60 60.77 63.66 63.93 64.15 64.76 65.31 65.70 65.05 63.87 62.95 62.41 61.82 62.17 63.57 63.34 63.10 64.26 64.93 65.35 65.97 67.18 67.85 68.39 67.62 68.09 66.45 65.57 66.81 66.46 64.70 64.12 66.33 67.53 68.85 69.11 70.87 70.55 71.05 70.46
56.44 56.90 57.44 58.23 58.98 59.71 60.87 60.47 60.73 63.45 63.73 64.45 63.50 62.28 61.60 61.49 61.82 62.45 62.72 62.72 63.12 62.96 65.41 65.99 65.59 66.42 66.67 67.47 67.04 67.31 66.55 65.39 65.06 64.08 63.79 64.31 65.56 68.20 67.22 66.58 66.97 68.50 67.02
54.62 54.77 55.74 57.13 58.28 58.35 59.49 57.53 57.96 57.27 61.73 62.91 63.45 62.84 62.84 61.99 61.41 62.87 62.28 62.90 64.13 63.63 65.18 63.30 65.87 63.13 59.46 61.18 62.91 65.87 66.14 63.47 61.42 61.02 61.70 62.71 63.28 64.15 64.99 67.67 65.00 66.10 67.82
53.70 53.65 54.49 55.03 55.67 56.93 57.72 59.51 57.24 56.17 58.84 61.19 62.03 61.43 63.20 61.96 52.82 52.27 61.19 64.40 64.65 64.12 63.80 63.71 64.09 61.47 58.91 55.46 55.19 54.15 56.47 60.94 61.11 58.34 58.19 59.53 63.08 64.35 66.37 66.61 65.84 64.35 62.42
53.05 53.48 53.45 53.75 53.92 54.82 56.50 57.14 56.80 55.80 56.61 59.01 61.26 61.95 62.86 64.35 51.53 48.68 50.37 65.57 64.28 64.06 65.58 65.26 63.83 61.93 60.17 61.17 54.42 52.82 52.73 51.31 52.94 61.30 59.77 60.81 61.86 64.36 66.53 66.13 65.30 64.93 63.92
49.67 50.86 52.20 52.60 52.77 53.92 54.67 56.03 58.58 60.33 58.57 58.32 58.15 59.63 62.33 63.17 50.23 47.28 47.82 62.09 65.00 66.25 66.27 65.91 65.32 65.50 64.26 62.30 62.00 61.66 61.95 61.82 60.08 59.84 61.71 63.62 65.15 66.20 64.63 65.41 65.19 64.79 65.72
48.36 49.11 50.25 50.95 51.43 53.18 53.61 56.28 57.59 58.05 59.89 61.21 61.33 62.21 62.65 62.64 49.17 46.05 49.54 58.64 62.60 65.50 66.05 66.31 65.79 65.34 56.77 48.53 61.55 60.93 60.95 61.75 56.56 50.84 49.92 48.89 45.65 46.77 51.27 63.38 62.25 62.03 61.02
47.27 48.00 50.11 50.07 51.05 52.26 54.19 55.55 56.45 56.85 57.01 57.92 59.44 62.27 58.84 63.27 51.86 46.02 50.10 61.86 62.16 62.26 65.58 66.06 52.94 61.78 51.06 46.46 62.18 62.09 60.25 61.47 60.91 61.26 61.66 58.30 53.16 58.69 48.56 60.31 63.70 60.64 60.26
47.58 48.90 48.55 49.60 49.06 49.97 51.58 54.38 55.73 54.92 55.00 57.39 58.19 60.42 62.28 61.98 62.32 46.47 44.83 61.62 61.93 62.36 62.13 63.13 64.42 49.10 45.65 44.34 49.71 63.79 61.08 61.79 58.43 60.26 60.02 59.81 60.76 61.97 63.93 64.01 64.51 62.65 59.09
46.67 47.62 47.51 48.20 48.75 49.10 49.86 49.06 51.56 53.50 54.54 55.36 56.20 57.50 59.28 61.76 52.91 47.25 44.94 46.37 55.78 61.89 61.99 62.70 63.52 47.08 46.81 44.01 47.00 49.18 43.93 48.15 58.49 57.70 57.47 58.19 58.60 58.88 63.39 63.57 64.11 62.41 62.21
45.66 45.60 45.96 47.37 47.76 47.87 47.53 48.13 48.31 50.14 50.16 51.29 52.82 54.02 55.65 57.63 60.75 47.57 44.40 44.06 46.17 57.64 61.90 58.59 50.30 45.28 46.05 46.13 44.63 46.28 41.74 55.95 56.38 56.38 57.43 58.71 59.62 60.16 64.41 62.40 63.13 61.92 62.15
43.29 44.49 44.99 44.00 44.38 46.91 46.97 46.51 46.16 46.60 48.16 49.91 51.60 52.95 54.24 56.13 57.86 60.99 55.79 52.61 46.93 51.77 53.70 58.56 56.01 53.20 52.14 56.01 53.76 48.46 56.34 58.13 57.29 57.38 58.36 59.41 60.11 62.16 62.61 61.63 58.72 60.28 60.53
41.28 42.56 41.81 41.48 41.88 43.41 44.85 46.12 45.92 47.11 47.89 48.07 50.48 52.17 52.83 54.25 55.57 53.14 55.01 58.94 59.02 56.01 56.05 59.57 60.85 59.40 59.05 59.20 59.49 59.81 58.97 58.32 57.22 58.68 58.64 58.68 58.49 61.48 60.19 60.49 59.37 59.02 58.29
39.02 40.24 40.98 41.54 41.42 42.10 42.74 43.41 42.42 41.93 41.45 41.24 41.30 45.35 52.29 46.66 41.46 42.55 41.52 42.71 45.54 45.00 54.76 57.18 57.98 59.80 58.94 58.90 58.66 58.50 59.99 56.96 59.52 58.86 59.27 59.26 59.34 60.66 56.20 58.58 59.08 57.57 59.23
38.19 38.76 39.59 40.51 41.02 40.53 40.42 39.86 40.19 42.69 40.67 40.67 39.04 40.11 40.68 42.75 39.29 40.31 40.78 39.24 40.73 42.62 56.40 56.17 57.73 58.58 59.54 59.61 59.17 58.11 58.27 59.81 61.22 59.53 59.58 59.95 59.07 59.48 55.42 57.90 58.77 59.59 59.47
38.30 38.32 39.00 39.43 40.02 40.55 40.03 40.01 40.29 39.40 39.19 41.47 41.20 41.03 39.75 39.38 39.65 38.50 39.19 40.88 49.59 45.90 53.89 56.68 56.73 58.14 58.74 58.58 58.26 58.19 58.80 59.63 58.93 59.93 60.16 60.21 59.76 59.36 58.18 57.26 58.92 59.42 60.30
36.81 37.31 38.20 37.66 39.11 39.99 40.43 40.51 40.66 40.86 41.20 42.20 44.09 41.68 40.49 39.09 38.32 37.48 37.94 45.53 48.80 51.84 52.37 54.96 57.06 56.72 57.44 57.54 58.53 58.27 58.90 59.21 58.83 60.20 60.10 59.84 60.04 59.30 58.32 58.59 60.41 50.63 54.89
35.71 35.65 35.63 36.19 36.77 37.69 38.23 38.77 39.24 39.57 38.78 41.34 41.79 43.69 43.92 40.58 42.25 42.99 43.46 45.05 47.04 50.02 52.35 54.54 55.52 55.71 55.80 56.47 58.00 58.01 58.37 57.91 59.25 59.92 60.11 60.36 59.67 59.96 58.77 59.80 61.33 61.96 61.49
35.58 36.49 35.48 37.53 37.76 38.27 38.93 38.88 39.29 39.05 39.55 40.79 40.54 44.23 40.65 43.02 42.94 44.05 44.82 46.66 47.89 50.68 51.90 53.25 54.31 55.46 56.98 58.34 58.61 58.71 58.86 58.89 59.87 60.21 60.61 60.41 59.51 58.87 60.13 61.06 62.30 62.52 63.21
39.47 39.63 40.25 41.39 43.32 44.72 45.99 45.50 41.95 40.78 40.80 40.70 42.07 42.44 36.27 44.31 44.75 45.98 48.05 49.59 50.89 52.96 54.61 53.81 55.74 56.50 57.54 57.70 58.79 59.60 58.05 59.12 60.51 60.77 61.11 60.56 60.08 59.67 61.92 61.86 62.34 62.13 61.44
40.60 41.81 43.45 47.76 49.72 44.76 48.17 45.73 43.71 43.16 43.16 43.62 44.49 43.46 43.14 45.56 46.14 47.80 49.09 51.10 51.74 51.89 52.89 53.52 55.86 55.42 57.12 59.64 59.74 59.11 57.38 60.09 61.62 62.15 61.31 59.86 59.57 60.52 60.37 60.66 60.70 60.03 59.58
51.21 50.84 51.07 50.33 49.76 48.72 47.68 47.36 46.54 43.03 45.62 45.10 44.42 44.10 44.75 47.33 48.86 49.67 50.99 51.66 52.80 53.74 53.60 54.16 54.77 55.10 58.01 58.91 59.18 59.98 60.22 62.11 62.90 62.44 61.90 60.71 61.15 57.63 60.56 58.18 57.84 58.46 57.80
48.99 49.13 51.53 50.71 50.49 49.89 49.52 48.24 47.85 47.33 46.52 45.58 45.05 45.47 47.88 48.23 49.44 51.68 51.25 51.43 52.43 53.87 54.21 55.70 55.69 57.14 58.54 58.67 59.00 59.89 54.52 41.88 59.73 54.16 63.49 62.96 61.99 61.43 59.76 58.37 56.94 55.49 52.45
46.31 47.43 48.91 49.66 48.22 49.39 50.19 50.50 50.23 49.76 48.86 49.15 49.83 49.93 50.65 51.41 50.38 50.66 51.99 54.36 54.61 54.63 55.18 57.33 58.27 58.08 56.12 56.88 59.22 52.22 38.98 40.24 50.48 44.96 61.94 62.53 61.13 59.45 59.12 57.59 54.76 52.58 51.44

GFSGL_sfc_wetblb_108.txt.gz
Wetbulb
60.80 61.58 61.07 60.77 61.48 62.35 63.95 65.01 66.47 67.06 67.85 68.16 69.02 68.92 65.68 63.90 63.63 63.81 61.55 61.79 60.44 56.13 62.72 66.32 67.92 68.72 67.93 67.70 67.20 66.70 63.26 59.46 55.67 58.43 61.99 61.64 60.56 66.43 66.28 66.36 66.91 67.20 67.63
59.28 58.91 61.04 61.40 60.29 60.68 61.31 63.12 65.22 65.29 66.27 67.15 67.73 67.05 65.29 64.26 63.14 65.00 58.81 56.66 58.02 55.84 60.38 64.90 66.15 67.17 66.53 67.03 67.15 65.09 62.64 59.45 58.05 55.18 58.92 60.72 61.88 64.00 64.65 65.28 66.96 68.63 67.88
56.91 56.38 57.26 60.32 60.00 59.52 60.21 61.15 62.85 62.41 61.45 63.50 65.79 65.17 65.21 62.31 62.80 62.09 62.40 60.45 61.48 62.28 63.36 65.22 65.05 66.24 65.83 65.89 64.97 64.93 64.18 60.43 58.05 59.89 58.24 62.30 63.51 64.06 64.40 65.94 65.86 66.11 67.91
55.59 55.33 55.64 56.37 58.50 58.98 59.15 59.06 60.87 61.58 61.10 59.93 58.50 58.20 62.07 63.13 62.45 61.74 60.72 60.59 61.49 61.83 63.10 63.76 64.39 64.65 64.91 64.58 63.91 63.37 63.65 62.64 61.60 60.58 59.61 60.22 61.83 62.15 62.26 62.16 62.08 64.18 64.77
54.19 53.95 54.44 55.71 56.39 56.82 57.19 58.34 58.73 59.95 59.62 59.66 58.02 56.59 56.83 60.53 61.71 61.32 61.93 62.29 62.55 62.28 63.36 63.86 63.83 61.45 58.09 59.75 63.44 61.84 61.45 60.69 60.30 58.86 57.30 56.93 57.55 58.09 59.94 62.46 61.41 62.30 63.56
53.57 53.50 54.22 54.83 54.85 54.46 55.06 55.71 56.99 59.27 59.25 58.50 57.16 56.62 53.84 56.51 53.34 53.42 60.82 62.63 62.94 62.44 61.82 62.28 63.28 59.43 57.18 55.04 54.69 53.62 56.64 56.97 57.25 56.12 54.29 53.25 55.05 55.95 58.42 61.39 61.02 60.39 58.65
52.30 52.38 52.43 52.48 51.90 52.66 54.24 54.40 54.63 56.67 59.28 57.58 56.44 56.41 54.25 54.32 52.81 51.54 51.11 63.77 63.23 62.96 62.49 62.82 60.74 61.22 60.02 60.56 53.96 52.38 51.89 50.84 52.22 56.32 55.96 56.26 56.54 58.12 59.30 60.07 61.07 61.34 61.10
49.94 49.99 50.39 50.72 50.65 50.78 50.64 52.23 54.13 55.55 57.84 57.61 55.81 54.88 55.02 56.32 51.62 49.04 50.48 59.44 61.87 63.59 63.42 63.55 61.78 61.64 60.70 60.17 59.21 58.04 58.53 58.74 55.62 54.87 56.79 58.22 59.80 60.48 59.63 59.72 60.32 60.56 61.25
48.52 48.82 49.18 48.85 47.93 49.03 49.15 50.76 50.90 53.25 54.58 57.39 56.92 55.30 54.65 55.74 50.50 47.41 49.44 58.11 56.46 57.10 63.27 63.56 63.26 62.34 55.16 50.46 60.83 59.59 59.32 59.85 55.57 52.64 53.01 52.08 48.19 45.27 46.76 57.03 57.75 58.73 58.25
46.79 47.58 48.32 47.71 48.09 47.57 48.46 49.63 50.25 50.92 52.98 55.28 55.67 57.77 56.17 57.40 51.19 47.75 48.48 59.60 58.37 58.98 59.81 60.45 53.11 60.30 49.92 47.69 58.84 59.80 58.89 59.17 59.75 58.42 55.17 52.35 48.36 53.18 46.81 57.31 60.51 59.45 58.66
48.25 48.02 47.40 46.97 47.41 47.72 48.17 49.98 50.09 49.18 49.86 52.11 53.47 54.50 57.22 57.65 57.97 46.33 45.10 58.90 59.49 59.39 57.88 58.10 61.66 48.80 48.19 45.53 49.74 60.13 58.51 59.85 58.42 58.92 58.31 58.47 58.10 59.47 60.70 60.69 62.14 61.06 58.70
46.74 46.23 45.45 45.55 46.63 47.41 47.84 47.98 48.64 49.03 48.81 49.09 51.31 52.18 54.93 57.16 51.66 47.36 44.37 48.05 53.92 59.47 59.19 59.75 59.84 47.18 46.26 44.65 46.53 50.58 46.45 51.66 58.59 56.77 55.73 55.11 56.00 56.54 57.76 61.33 62.12 61.77 61.92
43.55 43.30 43.51 44.22 45.50 46.07 46.27 46.25 45.72 46.47 47.49 47.28 49.24 50.70 51.74 54.38 57.39 47.85 44.19 44.07 45.79 57.68 60.44 57.41 51.15 46.75 44.90 45.84 45.39 46.85 45.21 55.58 56.58 54.72 53.86 54.61 56.13 57.91 59.75 61.41 60.73 60.92 61.09
40.47 40.99 41.98 42.76 43.74 45.28 45.84 45.90 45.78 45.71 45.37 46.72 46.85 48.61 51.06 52.71 53.91 56.60 54.23 50.48 46.31 49.70 53.32 57.57 54.80 52.60 50.84 53.74 51.67 49.83 55.25 56.16 55.60 54.59 54.70 55.97 57.68 58.07 57.31 59.92 58.89 58.18 57.68
38.73 40.07 40.19 40.73 41.80 43.18 43.89 44.05 43.96 45.93 45.79 46.00 47.03 48.35 48.78 50.06 53.09 50.68 51.72 56.75 56.47 53.60 54.93 57.62 57.16 56.69 57.55 57.55 56.87 54.76 55.49 56.53 55.45 55.72 55.34 55.14 56.06 56.66 56.49 59.63 58.37 57.94 56.77
37.12 37.70 38.31 39.07 40.02 41.33 41.76 41.84 41.06 40.84 41.28 40.48 40.74 44.02 49.35 45.43 41.00 40.93 41.76 41.95 41.12 43.87 54.05 55.55 55.28 55.26 56.39 57.41 57.70 57.08 56.80 54.66 56.39 56.10 55.60 55.88 56.89 57.34 56.98 58.20 57.37 57.78 55.71
36.39 36.85 37.38 37.95 38.47 38.11 39.15 40.51 39.75 41.75 40.30 39.83 38.95 38.90 39.39 41.13 39.48 39.77 39.91 39.08 40.00 41.70 54.02 54.57 54.89 54.81 55.89 57.83 57.72 57.55 57.08 57.69 57.99 57.25 56.48 58.13 58.72 58.39 55.45 57.09 56.73 56.93 57.26
36.48 37.11 37.09 37.35 38.20 38.52 39.11 39.62 40.21 39.51 39.00 40.90 40.89 40.14 39.51 38.80 38.80 38.01 39.84 40.90 46.00 45.96 52.40 54.67 54.51 55.36 55.46 57.35 57.90 57.55 57.32 57.42 57.50 57.57 58.68 58.99 59.15 57.60 57.61 57.73 56.75 55.57 55.93
34.40 34.99 36.12 36.91 36.97 38.04 38.67 39.29 39.82 39.65 38.87 39.49 41.11 40.30 39.96 38.86 38.40 37.03 38.61 44.44 45.08 47.29 50.06 53.36 55.36 55.26 56.12 56.68 56.93 57.21 57.21 57.01 56.57 58.93 58.91 59.08 59.04 58.09 57.45 57.86 56.47 45.01 48.82
33.90 34.22 34.61 35.28 35.48 36.68 36.61 36.26 37.88 39.10 39.26 39.93 40.06 40.64 42.83 39.67 41.07 42.28 43.73 45.05 45.33 46.34 48.27 51.69 54.58 55.26 55.91 55.22 55.56 56.61 56.21 55.39 58.69 59.06 58.69 58.56 58.63 58.73 58.19 57.85 56.87 57.09 58.09
35.96 35.74 35.01 36.15 35.94 36.34 36.50 36.42 37.27 37.72 38.46 39.59 40.30 41.39 39.06 42.47 41.74 43.01 44.29 45.45 45.74 46.94 48.73 50.81 53.17 53.85 55.03 55.34 55.15 55.17 55.09 56.71 58.35 58.52 58.72 58.62 58.94 58.16 59.13 57.92 58.41 58.77 59.32
37.46 38.62 40.05 40.00 40.32 40.21 39.41 39.16 38.58 38.32 38.77 39.33 40.21 40.33 35.14 43.80 43.11 43.10 44.22 46.12 47.23 48.38 50.07 51.04 52.03 53.11 54.13 54.12 54.38 54.31 55.32 57.95 58.71 59.06 58.96 59.43 59.12 59.29 58.60 57.76 56.89 56.69 58.62
42.84 42.03 43.22 44.78 48.24 44.86 46.09 43.67 42.63 40.21 40.09 40.20 41.25 41.32 40.23 42.75 43.84 44.18 44.90 46.72 48.15 49.51 50.72 52.54 53.25 53.50 54.09 55.62 56.37 56.25 56.48 58.10 59.37 59.78 59.61 59.51 59.45 58.62 58.00 56.53 57.53 58.95 57.84
50.94 51.07 49.95 49.62 48.65 48.02 47.31 45.19 43.49 40.16 42.09 42.10 42.47 42.73 43.30 44.54 44.78 45.64 46.82 48.37 49.44 50.58 52.10 53.55 53.29 52.78 54.17 54.76 55.53 58.37 59.00 61.23 61.19 60.93 60.58 59.45 58.88 55.02 57.57 58.29 58.72 57.98 54.69
47.11 47.70 49.15 49.18 49.54 48.87 47.87 46.79 46.22 45.66 45.11 44.76 44.33 44.59 45.16 46.76 46.30 47.69 49.65 50.11 50.64 51.74 52.47 52.24 52.45 54.36 53.97 54.48 56.46 57.44 45.68 42.09 58.61 52.38 61.24 60.06 57.84 58.41 58.63 56.77 54.93 53.45 51.95
44.01 44.14 44.98 46.07 46.97 47.31 48.64 48.48 47.31 46.28 45.78 45.59 45.64 45.80 46.87 47.79 48.09 49.70 50.54 51.18 51.06 52.31 53.05 52.76 53.55 54.24 54.76 57.84 57.31 43.40 38.85 39.21 49.84 44.10 59.77 60.36 59.28 57.71 56.15 54.14 52.25 50.92 49.81

GFSGL_sfc_wetblb_111.txt.gz
Wetbulb
54.23 54.04 53.96 53.42 54.66 54.54 55.67 57.20 58.55 60.09 60.38 61.65 63.26 64.77 64.92 60.30 58.82 57.11 56.41 58.59 58.76 58.06 57.94 56.16 56.66 59.77 59.44 61.81 63.24 61.75 60.02 57.51 55.13 55.38 57.55 58.89 57.43 59.34 61.78 65.13 64.93 63.83 64.17
52.72 51.81 51.53 54.82 54.35 53.75 54.25 56.12 56.90 57.95 59.09 58.36 57.94 59.57 60.58 62.27 61.53 59.71 58.21 60.12 60.59 57.95 56.51 56.29 56.09 59.26 58.26 60.31 64.22 61.05 59.08 56.95 54.92 53.51 53.16 55.42 56.42 57.37 60.93 63.06 64.59 65.92 65.45
51.66 50.19 49.61 50.37 51.92 52.52 53.61 54.54 54.78 55.68 57.30 58.02 56.64 57.26 57.36 58.48 62.43 62.26 61.44 60.43 57.61 57.33 55.94 56.87 57.09 57.45 57.52 61.93 63.85 61.80 59.36 58.79 55.39 54.44 53.80 57.57 58.68 60.32 60.90 61.51 62.13 63.04 65.39
50.13 49.32 48.81 49.07 50.25 51.20 52.24 52.54 53.25 54.66 56.42 56.62 56.89 56.63 57.71 56.49 60.57 62.05 60.99 57.41 57.88 56.67 56.48 57.16 58.97 60.48 61.34 63.30 62.69 61.51 59.82 57.23 55.41 55.69 56.21 56.51 57.43 57.83 58.83 58.18 58.12 60.29 61.23
48.92 48.19 47.99 49.11 49.88 50.30 50.61 51.45 52.40 52.99 54.12 55.60 56.50 56.40 56.51 56.58 56.88 54.32 55.02 58.24 58.62 57.38 57.33 59.39 59.81 60.87 61.46 61.97 62.32 60.36 59.17 57.94 56.47 55.24 52.67 50.89 52.09 53.00 54.11 57.39 57.09 58.35 59.80
47.78 47.71 48.90 49.29 49.78 49.21 49.10 49.28 49.28 50.48 52.04 53.94 55.90 55.27 54.45 56.44 51.06 49.07 53.44 54.92 57.07 58.81 59.58 60.53 60.70 57.52 56.69 56.25 56.21 55.71 57.05 55.45 53.78 51.11 49.89 47.47 49.15 51.19 52.66 53.75 55.69 55.83 55.47
46.81 48.25 48.58 48.20 48.38 47.59 47.65 47.17 46.66 46.23 48.16 50.68 53.86 54.06 52.75 52.04 49.38 48.84 49.71 55.33 55.31 57.52 57.62 56.84 58.17 58.02 55.91 55.56 52.46 51.57 51.01 50.25 50.74 50.78 48.56 50.60 51.02 53.33 54.04 53.78 54.73 55.12 55.79
45.96 46.68 47.65 47.81 47.39 47.47 46.98 45.91 45.83 46.66 47.10 48.20 49.45 53.67 52.66 53.16 48.56 47.39 49.01 54.71 54.82 55.18 57.36 57.69 55.04 56.06 56.43 55.56 51.57 49.76 50.35 50.43 50.50 52.57 52.31 52.98 54.78 55.29 56.81 54.73 53.67 54.33 56.15
45.89 46.25 46.94 47.24 46.42 46.57 45.71 45.08 45.38 45.85 46.20 47.52 49.24 51.51 52.23 52.22 47.50 46.28 49.45 53.86 53.95 55.51 58.92 59.60 56.18 56.78 52.76 50.58 53.47 51.81 52.83 53.79 52.68 49.75 49.56 48.83 49.65 49.52 48.11 52.22 51.26 54.00 56.06
43.43 45.82 47.14 47.19 47.13 46.56 46.16 45.57 45.44 45.71 46.17 47.59 47.56 49.33 51.98 52.52 47.76 45.03 47.77 53.88 54.54 54.82 54.40 58.50 50.64 53.14 49.54 47.15 55.86 54.33 53.36 54.05 55.55 54.45 52.42 50.02 47.75 49.13 44.90 52.53 54.16 54.58 55.73
44.31 44.11 44.78 46.59 46.83 46.76 46.30 46.17 45.93 45.00 46.02 46.60 46.72 48.41 49.46 52.74 54.66 46.21 45.17 54.45 56.17 53.68 54.12 55.75 53.86 46.96 45.45 46.22 47.66 56.89 55.44 55.56 54.13 54.04 53.05 52.02 53.69 54.29 55.10 53.22 55.49 56.73 54.54
40.31 41.55 43.14 44.47 45.28 46.40 45.34 44.82 44.96 45.35 46.14 45.37 44.86 46.72 48.58 49.58 48.49 47.70 44.07 46.93 52.24 56.40 56.31 56.13 54.24 44.77 44.59 44.00 45.56 49.22 47.35 51.97 56.20 54.02 52.83 52.02 51.40 51.08 52.50 55.73 58.08 58.54 57.87
39.62 39.08 41.33 42.53 43.72 44.11 43.27 43.01 43.58 45.24 45.39 45.12 44.62 45.27 46.55 48.91 49.14 47.15 44.31 43.19 45.01 53.30 56.72 54.71 50.08 45.85 43.02 43.87 44.37 45.94 47.12 54.80 53.69 52.07 50.89 50.39 51.11 52.42 53.12 56.77 57.35 57.59 57.63
37.01 37.42 38.25 38.77 39.81 41.22 42.24 42.96 43.61 43.92 44.07 44.42 44.18 44.31 44.72 46.42 48.13 49.66 50.57 47.62 44.63 48.04 51.37 51.85 52.18 51.50 49.63 51.22 47.93 48.20 51.61 53.83 53.65 52.12 50.81 50.50 51.54 52.12 53.10 55.25 55.13 54.82 53.94
36.18 36.63 36.74 37.74 38.37 40.09 41.17 41.81 43.13 44.70 44.53 44.42 45.00 45.37 44.91 44.53 46.48 41.88 45.53 51.41 50.69 49.84 51.64 53.73 52.34 52.57 52.19 51.99 52.14 49.91 51.07 52.79 52.41 51.52 51.29 51.01 51.51 52.20 52.61 53.98 54.53 53.80 53.57
34.85 35.35 36.00 36.83 37.97 38.58 38.94 39.43 40.84 40.68 40.70 39.92 39.58 41.72 46.56 43.43 40.20 40.59 40.84 39.69 39.35 40.86 50.09 51.96 52.43 51.62 51.66 52.92 53.27 52.03 51.79 51.82 53.25 52.21 51.48 51.06 50.95 51.74 52.59 53.68 53.36 52.76 51.85
34.70 34.95 35.87 36.80 36.95 36.78 37.13 38.06 37.00 40.14 40.48 39.46 38.99 38.90 38.57 39.86 38.70 39.70 40.99 40.48 39.62 40.64 48.89 51.71 51.30 51.69 51.40 52.93 54.90 54.04 52.40 53.29 54.31 53.60 53.07 51.57 52.15 53.58 51.06 52.95 52.88 53.46 53.22
32.75 34.51 34.81 35.29 35.90 36.87 37.31 37.83 38.03 37.46 37.44 40.29 39.46 39.14 38.71 38.96 38.24 38.69 39.81 41.74 44.79 42.73 44.80 49.59 51.04 51.78 51.48 51.54 53.78 54.87 54.50 54.19 53.82 53.62 52.32 53.76 54.94 54.32 53.49 53.15 53.56 53.38 54.18
32.16 32.85 34.04 34.15 35.31 36.33 37.20 37.14 37.65 38.16 38.31 39.36 40.91 39.54 39.11 38.40 37.90 36.97 38.57 43.35 43.86 44.56 43.52 47.03 51.12 51.64 51.39 51.78 52.36 54.54 54.35 54.20 54.23 53.00 54.03 55.08 55.36 53.79 52.50 53.76 54.34 45.47 47.28
33.62 34.37 34.37 34.38 34.48 35.48 35.87 35.94 36.56 37.28 37.62 39.20 39.56 39.64 41.02 39.18 40.16 40.21 39.72 43.16 44.26 44.51 44.14 45.03 49.49 51.39 52.13 51.92 52.19 52.10 51.03 50.52 50.74 54.42 55.20 55.46 55.01 54.51 53.76 55.09 54.66 53.89 54.51
35.14 36.31 35.38 36.03 35.62 36.01 35.83 35.51 36.68 36.34 36.49 37.74 38.98 40.50 37.56 40.81 40.18 40.54 40.94 42.28 44.12 45.12 45.60 46.82 48.43 52.94 53.43 54.05 50.17 52.38 50.13 50.39 54.03 55.73 55.35 54.83 55.09 55.19 55.93 56.23 56.15 56.37 56.69
36.56 38.15 39.41 39.67 40.24 38.87 38.20 38.13 37.63 36.93 37.14 37.66 39.67 40.21 35.35 40.67 42.35 41.93 42.49 43.04 44.11 44.98 47.36 47.89 48.82 50.17 51.75 51.69 51.32 49.28 48.47 50.65 54.10 55.05 54.85 55.49 56.05 55.87 56.49 56.43 56.81 56.83 55.43
42.54 48.15 45.14 45.40 46.93 43.63 43.90 43.14 42.03 38.45 38.44 38.90 39.95 40.09 39.75 40.12 43.02 42.97 43.04 44.29 45.72 45.42 47.54 48.72 49.30 49.78 50.73 51.89 51.75 51.13 48.44 51.39 55.20 56.51 56.87 56.67 56.55 56.61 56.69 55.87 55.27 54.98 56.19
44.76 46.33 47.50 47.91 48.49 47.23 45.85 43.13 41.27 38.76 40.01 40.14 40.78 41.12 40.95 40.98 42.95 43.82 44.09 44.63 45.23 46.04 47.05 48.30 49.43 50.37 51.08 51.26 50.42 51.26 52.10 53.68 57.63 57.90 57.90 57.59 57.39 52.30 56.21 55.83 55.85 56.67 53.44
41.74 44.05 44.10 45.02 45.99 46.58 46.96 46.14 45.32 42.60 42.22 41.85 42.18 42.26 42.40 42.89 43.98 44.62 45.08 45.39 45.62 46.65 46.73 47.69 47.84 50.56 50.76 50.04 52.22 51.75 48.66 40.76 56.36 50.28 58.69 58.05 57.09 56.13 56.23 56.33 54.63 52.75 50.77
38.13 39.30 41.40 42.49 43.12 44.00 44.46 45.95 46.04 45.49 44.47 44.25 44.35 44.19 45.08 44.94 45.26 45.50 46.05 46.61 46.07 46.84 48.11 48.83 49.06 49.34 50.24 52.01 53.82 42.14 39.49 40.03 48.61 43.30 58.23 56.23 55.75 56.77 56.07 54.33 52.40 50.01 48.60

GFSGL_sfc_wetblb_114.txt.gz
Wetbulb
51.99 51.67 51.77 52.56 52.36 52.56 51.89 52.75 54.12 55.67 55.94 57.24 57.99 57.92 58.26 58.60 61.08 59.27 59.89 61.18 57.74 56.80 57.91 57.76 57.36 57.41 57.29 57.59 57.85 60.25 60.26 57.79 54.60 58.25 57.20 57.98 57.18 59.22 58.25 60.78 63.16 62.65 63.09
51.52 51.93 51.24 51.46 52.38 51.89 52.05 52.81 53.47 53.79 54.59 56.22 57.17 57.05 57.73 58.38 57.96 58.83 58.28 58.72 58.07 57.16 57.91 57.30 57.34 57.90 56.30 58.00 59.22 60.44 60.86 59.95 58.40 56.13 55.29 56.04 56.03 55.86 57.07 57.66 60.60 64.18 62.84
49.29 48.72 48.10 47.96 49.69 51.77 50.78 51.42 52.65 52.47 52.01 53.05 56.63 56.25 56.74 57.42 56.92 60.04 59.61 58.60 57.82 58.64 57.63 56.67 56.51 56.17 55.82 56.54 56.94 60.74 59.87 59.61 57.30 55.84 54.03 54.59 55.03 56.44 56.84 58.52 59.35 60.71 63.46
47.98 47.33 46.54 46.56 46.87 47.50 49.05 50.32 50.49 51.00 51.59 52.46 54.07 55.59 56.23 56.67 56.97 58.04 60.34 60.68 58.99 58.33 58.85 57.62 57.47 56.68 55.63 55.21 58.01 61.28 59.85 57.91 56.52 56.03 54.38 53.50 54.34 56.14 57.20 56.48 55.90 57.64 58.81
46.54 46.01 45.84 46.57 47.26 47.75 47.90 48.28 49.32 50.32 51.02 51.08 51.54 53.76 55.29 56.20 56.57 54.96 56.01 57.63 57.81 56.79 56.84 57.03 56.30 57.70 57.79 57.62 61.52 59.11 58.79 57.45 56.10 55.52 54.63 50.81 51.52 50.91 51.19 54.69 54.99 55.80 56.62
45.27 45.32 46.50 47.13 47.41 47.24 47.40 47.45 47.17 47.30 48.08 49.12 49.53 50.98 52.42 55.10 51.87 51.05 51.97 54.24 56.20 56.36 56.42 57.96 57.17 56.65 56.92 55.46 55.66 56.56 58.76 57.62 55.11 53.00 50.31 47.69 47.90 49.93 51.68 52.24 53.16 53.07 50.82
45.28 46.32 46.86 46.60 46.66 46.93 47.48 46.95 45.97 44.76 45.33 44.83 46.46 48.61 49.61 51.46 48.89 47.55 48.45 52.95 55.16 55.22 53.60 55.39 57.56 60.32 57.62 59.70 55.27 54.39 54.01 52.55 54.36 51.71 48.14 47.44 48.15 50.27 51.26 51.30 52.21 52.84 52.12
44.12 44.74 45.86 45.93 45.99 46.38 46.27 46.38 46.01 43.73 43.34 43.31 44.38 45.71 46.37 48.67 47.89 46.53 46.69 51.01 54.10 52.98 54.77 54.99 56.22 57.98 57.01 57.01 54.59 52.62 52.04 50.37 50.30 49.89 48.33 49.87 50.95 52.35 53.89 52.81 50.82 51.00 52.74
42.69 42.81 43.57 44.11 43.31 43.79 44.75 45.98 45.79 43.21 42.46 42.48 44.09 44.97 45.91 47.81 46.95 46.18 46.15 51.00 52.73 53.06 55.98 56.26 56.80 56.93 51.05 46.98 51.56 49.62 48.10 48.28 48.87 48.28 48.28 47.29 47.65 47.17 51.89 50.59 49.11 50.12 50.47
41.53 41.90 42.51 42.17 42.43 43.89 45.20 46.16 46.43 43.70 44.56 44.43 44.50 45.26 46.31 46.58 45.92 45.05 46.49 52.10 51.13 52.75 53.88 55.67 51.23 54.05 46.80 45.34 50.41 48.41 48.06 49.10 52.94 50.95 49.80 48.90 48.14 49.63 44.62 50.30 50.70 50.77 50.93
42.03 41.65 41.11 42.07 40.49 40.91 41.47 43.31 46.34 45.59 44.99 43.76 43.28 44.30 45.61 46.54 47.43 44.64 43.71 53.60 52.32 53.67 53.90 54.87 56.06 46.13 45.19 44.82 47.31 50.77 50.26 51.92 51.60 53.10 52.63 51.42 51.06 51.56 51.15 49.12 50.27 53.24 52.33
39.94 38.99 38.75 39.15 40.88 41.02 41.84 43.61 44.54 44.97 44.30 43.67 43.82 44.79 46.75 45.32 45.01 44.76 42.82 44.96 50.31 54.44 54.12 54.73 54.64 45.80 44.20 43.83 46.76 47.11 46.12 50.29 53.93 52.22 51.59 51.15 50.47 51.01 51.98 51.64 52.85 54.22 56.40
37.75 37.27 37.54 38.14 38.94 39.44 39.08 40.42 42.60 43.59 43.07 42.63 42.75 43.29 45.03 45.52 46.46 44.21 43.03 42.42 44.20 53.67 56.84 53.18 48.87 45.81 42.28 42.79 43.09 43.70 44.58 53.87 53.55 51.86 51.52 51.26 51.00 51.85 51.30 52.73 54.69 55.30 55.94
35.33 35.47 36.17 36.51 36.84 37.56 38.99 39.36 39.40 39.89 40.09 41.11 42.61 44.39 44.93 45.34 43.93 47.41 46.86 45.25 43.69 47.32 49.94 52.93 51.65 50.73 46.34 47.66 48.04 47.39 51.69 53.60 54.04 54.65 51.81 52.20 50.97 50.55 50.69 52.56 54.14 53.63 53.18
34.44 34.71 35.10 35.71 36.02 36.64 37.52 38.48 40.03 41.54 42.35 43.01 43.72 44.65 43.94 43.87 43.69 44.41 44.97 47.58 49.56 48.52 49.60 53.67 51.55 51.14 49.90 50.15 49.70 50.38 51.04 53.11 53.65 52.44 51.08 50.29 50.23 50.42 50.71 52.01 52.54 52.07 54.09
32.89 33.25 34.42 35.05 35.84 36.64 36.83 37.46 39.06 38.93 39.16 38.45 38.88 42.37 45.84 41.44 39.96 39.32 39.03 38.51 39.19 42.04 48.46 50.56 52.23 52.08 52.06 51.65 51.94 51.12 50.88 51.01 54.05 54.40 52.95 51.30 50.36 50.48 50.06 51.22 52.06 51.93 51.15
32.10 32.60 33.37 33.94 34.60 35.19 36.04 36.29 35.40 38.19 39.33 39.25 38.52 38.27 38.44 40.38 38.99 39.28 39.64 40.23 39.35 41.72 47.81 50.10 51.79 52.50 53.15 53.45 53.23 52.16 50.89 51.92 52.86 52.61 52.65 51.60 51.08 50.66 47.93 50.86 51.64 51.87 51.97
31.71 32.97 32.58 32.74 33.10 34.23 34.84 35.77 37.19 36.29 36.08 38.00 38.52 38.87 38.24 38.03 38.12 38.64 39.09 40.82 42.68 43.18 44.58 45.94 49.67 52.00 52.67 53.04 53.80 53.27 52.60 51.68 52.00 51.76 50.75 50.96 51.31 50.52 50.63 51.25 51.52 51.39 51.32
31.92 32.46 33.48 33.87 34.12 34.68 34.89 35.57 36.41 36.78 37.11 37.44 39.08 39.00 38.21 37.64 37.31 37.15 38.39 42.44 43.12 44.15 43.11 44.56 46.96 50.95 52.00 52.25 53.17 54.65 54.08 52.59 51.95 50.90 50.91 51.31 51.48 51.27 50.91 51.59 51.32 44.96 48.58
33.46 34.20 34.89 35.03 35.01 34.65 34.80 34.79 35.23 36.06 36.24 37.08 37.97 38.85 40.83 38.28 38.75 38.93 40.72 41.85 42.16 44.02 45.14 44.75 44.28 47.79 51.32 51.86 51.16 53.06 53.31 50.91 51.40 51.63 51.70 51.90 52.26 52.63 51.70 51.28 52.05 50.95 52.10
33.18 34.79 34.93 36.26 36.77 36.57 35.58 35.16 35.76 35.89 35.85 36.74 37.79 39.95 37.79 40.53 39.90 40.65 41.16 41.05 42.18 44.09 45.03 45.63 45.78 47.10 50.30 51.79 51.14 49.93 50.23 50.48 50.51 52.32 53.52 52.61 52.48 52.38 51.80 52.37 52.94 53.33 54.48
34.57 38.00 44.43 41.36 41.41 40.59 38.54 38.46 37.21 36.37 36.49 36.51 37.82 38.56 34.73 40.24 40.85 41.04 41.16 41.27 42.57 44.75 46.31 46.42 46.67 47.20 49.20 50.49 50.13 49.23 48.21 49.04 51.46 54.68 54.75 52.79 53.04 52.61 53.58 54.30 55.08 54.28 54.82
39.08 43.76 45.40 46.76 47.41 43.03 44.02 42.22 41.11 37.96 37.61 37.61 38.38 39.43 38.98 40.04 41.07 41.66 40.77 41.71 42.78 44.22 46.62 47.25 45.87 45.87 49.66 49.71 50.57 48.58 47.84 50.32 52.43 54.99 53.17 52.72 53.22 54.01 55.22 55.28 55.32 54.38 54.66
39.30 41.11 43.16 43.93 44.95 45.82 45.84 41.87 40.00 37.72 39.16 39.22 39.48 40.32 40.30 40.93 41.41 43.10 43.22 42.65 43.66 44.27 45.54 46.71 45.75 46.62 48.07 50.42 50.44 51.71 50.87 51.50 54.42 54.63 54.50 54.25 54.34 51.43 55.08 54.76 54.32 54.12 54.31
37.05 37.82 39.41 40.36 40.90 42.47 43.73 45.81 42.70 42.05 41.56 40.78 41.28 41.25 41.00 40.76 41.75 43.71 43.99 44.22 45.12 44.56 44.96 46.27 46.97 47.64 48.40 48.82 49.42 51.38 46.07 36.80 51.04 47.05 55.70 55.93 55.71 55.52 55.31 54.61 54.26 52.51 50.49
34.54 35.48 36.26 37.07 37.56 38.74 39.92 41.41 44.34 44.61 43.63 43.30 43.10 42.95 42.60 41.96 42.95 44.11 44.36 44.63 45.25 45.23 44.67 45.48 45.46 47.79 50.04 50.46 50.84 40.84 37.17 36.26 41.61 39.70 56.44 56.42 55.56 55.66 55.22 52.93 52.17 51.41 49.67

GFSGL_sfc_wetblb_117.txt.gz
Wetbulb
51.54 51.14 50.51 50.69 51.47 51.13 50.75 51.27 52.19 53.08 54.62 55.30 56.16 55.57 55.70 55.42 55.29 55.12 56.39 58.24 59.31 60.04 58.65 58.91 59.74 60.42 59.01 57.95 57.61 56.91 56.17 55.51 53.94 54.69 58.00 59.17 59.38 60.67 61.65 61.33 62.47 61.94 61.99
47.96 49.34 49.42 49.05 49.40 49.89 50.53 50.74 51.33 52.48 53.06 54.66 55.11 55.48 55.84 55.69 54.72 54.43 55.63 57.40 58.00 58.00 58.08 57.67 58.00 59.25 57.45 56.53 56.11 55.55 56.45 58.87 56.15 54.29 57.17 57.05 58.04 57.65 57.87 56.26 57.95 61.02 61.36
47.09 46.53 46.17 45.94 45.79 46.26 48.35 49.51 49.57 50.70 51.88 51.73 53.55 54.94 55.49 54.97 54.47 54.43 55.85 57.24 57.60 57.94 57.92 58.10 57.64 57.42 55.95 55.61 56.31 56.71 58.19 60.43 58.31 57.13 56.39 54.86 56.31 56.11 56.16 55.99 57.24 58.71 61.26
46.28 45.51 45.13 45.22 45.47 45.42 46.01 46.89 47.98 49.55 49.45 49.62 50.98 54.07 54.48 54.44 55.01 55.23 55.73 55.63 56.80 58.61 58.12 58.65 57.72 57.30 56.27 55.29 56.09 56.47 57.93 58.22 57.91 56.57 55.91 55.00 55.31 55.81 56.17 55.25 55.00 55.89 56.96
45.20 44.87 44.37 44.94 45.39 45.73 46.37 46.99 47.56 48.33 49.31 50.31 50.36 50.77 52.54 53.91 55.05 54.14 54.16 54.26 54.97 56.37 57.69 59.09 59.00 58.73 57.45 55.73 56.05 56.11 57.52 57.51 55.78 56.23 55.06 53.52 53.07 52.58 52.23 53.38 52.26 53.45 54.38
43.52 43.94 45.21 44.98 45.37 45.40 45.67 45.62 46.01 46.58 46.90 47.34 47.99 49.10 48.82 51.79 50.77 50.16 52.01 52.33 53.44 54.26 55.11 57.25 57.37 56.82 55.59 54.10 54.49 55.39 58.66 57.19 55.71 55.68 54.52 54.12 51.37 50.42 51.89 51.49 51.38 50.52 45.82
42.72 44.21 45.10 45.29 45.31 45.16 45.36 45.33 45.09 44.88 45.11 44.99 45.80 46.72 47.04 48.09 47.39 47.36 48.56 50.79 52.35 53.10 53.88 54.71 54.85 58.09 55.41 56.68 53.09 53.49 53.59 53.20 54.61 57.09 53.17 51.01 49.16 50.53 51.91 49.69 50.08 50.16 49.40
42.81 43.14 43.94 43.97 43.68 44.24 44.26 44.11 44.25 44.89 45.17 45.84 46.10 45.28 46.05 46.65 45.18 44.47 46.24 48.33 49.63 51.46 52.82 53.65 52.98 53.41 55.13 57.44 57.64 55.83 55.63 56.71 56.49 56.45 55.61 51.03 49.91 51.85 53.51 52.86 51.30 49.55 50.83
42.18 42.28 42.63 42.42 41.21 41.64 41.65 41.00 41.32 42.06 43.92 45.09 45.88 44.66 44.11 45.06 44.04 43.35 44.15 47.24 48.44 49.90 52.37 53.59 53.71 54.24 51.50 48.27 57.52 56.65 56.21 56.03 51.52 48.82 47.31 46.50 45.96 47.82 51.68 51.70 49.40 49.06 48.04
41.79 42.11 41.88 40.48 41.70 40.63 39.97 42.07 41.92 41.86 44.28 46.40 45.56 45.05 45.11 43.98 43.51 42.93 43.84 46.68 48.73 50.57 51.53 52.87 50.20 52.46 48.29 45.75 56.21 54.72 52.06 49.96 50.11 48.24 48.73 47.68 47.29 46.93 47.62 51.03 49.62 48.91 49.43
40.84 40.85 40.49 39.64 39.41 39.48 39.45 39.57 39.07 40.04 41.23 42.03 45.11 45.74 45.32 45.67 43.90 42.54 42.56 45.85 48.59 50.70 51.26 52.14 54.77 47.38 45.57 44.49 47.44 52.56 51.08 48.97 48.81 49.10 49.10 49.69 49.82 50.08 49.57 48.46 49.74 50.60 49.63
39.28 39.13 37.79 37.93 38.53 39.20 38.18 38.41 38.81 39.89 41.61 42.35 44.14 44.19 45.04 45.42 44.10 43.10 42.18 42.74 46.19 50.60 51.28 52.63 53.98 45.75 44.48 43.52 46.01 44.07 43.18 48.20 51.67 50.67 50.25 49.62 49.40 49.69 50.60 50.97 50.23 50.46 52.47
36.82 35.85 35.95 36.26 37.06 37.52 36.71 36.59 36.68 37.58 37.73 41.72 43.16 43.29 43.47 45.34 46.28 43.52 42.30 42.04 42.62 44.95 52.83 51.58 48.38 43.57 44.12 45.19 44.39 42.93 44.92 51.74 51.20 50.30 49.99 50.02 50.46 50.87 50.73 50.67 51.95 51.47 52.22
34.81 34.21 34.97 34.83 34.67 35.84 36.86 37.14 36.71 37.22 37.19 38.10 40.83 41.75 42.08 43.13 44.58 45.55 44.11 45.16 43.07 45.85 49.55 52.76 49.54 46.44 47.58 47.76 46.88 46.31 51.18 53.24 52.15 51.66 50.83 50.35 50.26 50.48 50.29 50.57 51.38 52.06 52.59
33.73 33.62 33.03 33.81 34.33 34.99 36.18 36.62 37.25 38.36 38.97 39.37 39.64 40.45 40.91 42.92 45.46 44.15 43.91 46.15 47.24 47.30 49.57 52.07 52.81 53.46 52.60 47.63 47.65 48.01 48.66 51.53 52.55 52.03 51.17 49.72 50.02 49.95 49.59 49.82 50.58 50.25 53.27
31.60 32.37 32.93 33.39 33.81 34.71 34.91 35.54 37.84 37.63 38.25 38.40 37.91 38.25 40.93 40.14 41.03 40.30 40.37 40.48 40.56 41.48 49.09 49.90 50.84 52.18 52.29 50.56 49.46 49.08 48.88 49.85 51.58 51.74 50.62 50.10 49.68 49.96 49.82 49.63 50.03 50.39 51.50
30.85 31.15 31.69 32.51 32.55 32.72 33.30 33.75 33.99 37.06 38.42 38.01 37.64 37.62 37.86 38.76 38.27 38.04 38.06 38.49 38.48 41.82 48.08 49.42 49.97 51.76 52.23 51.75 51.69 50.95 49.82 51.54 52.47 52.79 51.80 50.56 50.25 49.58 47.07 49.11 49.28 50.12 51.83
30.56 32.17 32.17 32.52 32.81 33.00 33.35 33.66 34.71 34.58 35.06 36.86 37.85 37.94 37.82 37.89 38.20 37.70 38.84 41.16 43.21 41.78 43.20 48.93 50.24 52.06 52.51 52.57 51.95 51.59 50.99 50.70 51.23 51.58 50.65 50.15 49.88 49.54 48.32 48.91 49.22 49.46 49.64
31.01 31.94 33.05 34.02 34.17 34.34 34.47 34.31 34.49 35.01 35.45 36.62 37.93 38.06 37.65 37.41 37.44 38.18 38.61 42.16 42.51 43.15 41.46 43.25 45.85 50.20 51.77 52.67 53.18 52.99 52.18 51.21 50.63 50.21 49.45 49.38 49.47 48.75 48.89 49.43 49.20 43.76 44.41
31.42 32.64 33.66 34.35 35.08 35.75 35.27 34.53 34.37 34.52 35.06 36.28 37.33 37.67 39.72 37.57 37.26 37.70 39.54 41.44 41.76 43.01 42.77 42.31 43.37 44.97 50.00 51.25 51.85 53.45 52.95 50.77 49.99 50.19 49.56 49.47 49.54 50.03 49.43 49.64 49.82 51.51 52.31
31.44 33.21 33.93 36.28 39.75 37.80 37.60 36.37 35.72 35.08 34.90 35.60 36.82 38.50 36.33 39.68 39.44 39.93 39.28 39.73 40.95 42.78 42.74 45.19 43.02 44.25 45.98 50.02 50.18 51.35 52.20 52.13 51.10 50.40 50.64 49.93 50.17 49.97 50.13 50.76 50.48 50.57 50.16
32.87 34.98 39.78 43.91 45.62 44.69 41.33 39.85 38.75 36.71 36.24 36.36 37.00 38.16 34.19 39.42 40.97 40.61 40.98 41.09 42.20 42.51 43.48 45.88 43.69 46.33 46.06 47.86 49.56 49.13 49.21 49.72 49.85 50.88 51.02 51.24 50.90 50.82 50.44 50.47 51.04 50.82 51.96
35.69 38.25 39.77 41.87 43.18 41.54 44.44 41.68 39.64 37.84 37.21 37.22 37.90 38.23 37.75 39.77 40.73 40.85 41.32 42.31 43.10 43.26 44.02 46.11 45.74 45.40 47.00 46.99 49.13 49.55 48.65 48.46 50.62 51.48 51.69 51.84 51.71 51.04 51.83 51.91 52.39 52.16 51.65
35.68 36.86 37.64 38.97 39.75 40.14 41.88 41.48 40.00 37.27 38.60 38.27 38.55 39.77 39.10 39.93 40.83 41.76 41.56 41.10 42.15 42.82 44.07 46.14 46.43 46.52 45.57 47.41 47.85 48.49 48.43 49.89 51.82 53.61 52.80 52.14 51.51 48.54 52.16 52.36 53.24 53.13 51.58
33.39 34.34 35.24 36.17 36.71 37.28 38.80 40.85 42.83 42.13 41.25 40.54 40.31 40.70 40.75 40.98 41.01 42.11 42.93 42.19 41.88 42.47 43.32 45.79 45.97 46.75 45.70 48.93 48.46 48.96 43.47 36.50 50.09 45.01 53.16 52.68 52.49 52.39 53.25 53.45 53.13 52.31 49.90
31.54 32.34 32.91 33.69 34.55 34.91 36.00 36.93 38.95 42.26 43.27 42.70 42.39 41.68 41.25 40.79 41.35 43.43 43.72 43.80 43.37 42.60 43.01 45.20 45.87 46.98 46.08 48.43 49.91 41.68 35.73 35.22 41.41 38.86 52.44 53.21 53.15 53.18 53.60 52.97 52.44 51.03 49.37

GFSGL_sfc_wetblb_123.txt.gz
Wetbulb
54.43 55.30 55.66 56.09 56.87 58.34 58.86 59.48 59.64 60.17 60.32 60.15 60.88 62.00 62.05 62.05 62.54 62.64 62.24 61.09 60.12 60.67 61.57 61.72 61.79 63.20 61.98 62.42 63.37 63.94 61.22 60.88 58.24 61.38 64.99 66.74 65.68 65.25 65.50 66.01 66.20 66.37 66.29
53.22 53.61 54.19 54.71 54.84 54.93 55.47 56.43 57.31 57.52 58.11 58.30 59.03 59.42 60.01 60.47 60.88 60.55 60.06 58.81 58.56 58.48 59.03 59.71 59.50 59.56 61.44 62.48 62.00 62.54 62.07 61.28 58.95 57.25 62.13 64.27 65.47 65.47 65.02 65.18 65.49 65.72 66.78
51.96 51.88 52.45 53.01 53.31 53.84 54.48 55.16 55.25 55.05 55.08 55.27 55.41 55.74 56.65 57.86 58.97 59.71 59.27 58.68 58.32 58.23 58.27 58.59 58.62 59.61 59.62 60.14 61.44 60.48 60.68 61.51 60.12 58.23 58.67 63.76 64.44 64.06 64.33 65.12 64.99 65.86 66.66
50.74 50.82 50.99 51.67 52.06 52.35 52.96 53.32 53.41 53.73 53.37 53.67 54.12 54.07 54.17 54.44 55.29 56.83 57.99 58.70 58.93 58.35 59.51 59.66 59.04 58.58 58.90 59.58 60.20 60.71 60.88 59.74 59.00 58.56 57.72 60.82 62.41 63.79 63.94 63.53 62.88 64.53 63.92
49.55 49.54 50.03 50.72 51.07 51.07 50.93 51.26 51.48 51.80 52.02 52.02 52.24 52.91 53.74 53.91 53.39 55.04 55.71 58.00 59.20 59.09 59.87 58.97 60.15 58.93 57.38 58.07 58.40 59.66 59.76 58.73 57.93 57.76 58.05 59.46 58.61 61.53 62.00 64.25 62.22 62.90 65.02
48.70 48.46 49.56 49.62 49.58 49.47 49.61 49.84 50.17 50.31 50.57 51.04 50.82 50.96 51.46 52.45 48.54 48.13 52.14 56.32 57.23 57.97 58.18 58.23 58.44 57.07 56.79 54.58 54.33 54.35 57.92 58.69 57.13 57.43 57.45 57.32 58.17 62.66 63.61 63.27 63.07 62.38 60.30
48.03 48.16 48.10 48.25 47.62 47.73 48.50 48.64 48.82 48.86 49.36 49.14 49.13 49.28 49.45 50.84 46.81 45.31 47.36 53.33 55.33 56.41 56.62 56.66 56.40 56.32 55.11 57.18 53.97 52.63 53.03 51.71 54.05 58.28 58.29 60.44 61.67 63.28 63.62 63.04 62.44 61.95 60.76
46.84 46.59 46.83 46.57 46.32 47.14 47.57 47.10 47.08 46.88 45.66 46.28 46.41 46.96 48.02 48.78 44.50 43.61 44.59 48.61 52.08 54.68 55.27 55.22 55.14 54.87 54.34 54.19 55.32 56.18 57.79 58.20 57.09 58.61 58.76 61.56 63.84 64.06 62.74 61.95 59.10 60.18 60.76
45.04 45.07 45.33 45.49 45.25 45.48 44.24 43.83 44.21 44.14 43.65 43.53 43.99 44.11 44.46 45.63 43.41 42.24 43.04 46.10 47.39 50.50 52.81 54.13 53.24 52.94 48.12 45.27 52.68 52.66 55.25 57.91 54.37 51.01 52.15 51.37 49.93 49.26 55.18 58.86 58.68 56.26 56.22
43.81 43.55 43.99 43.80 42.38 42.12 39.83 39.82 40.99 40.68 39.51 40.01 40.34 41.41 42.16 43.37 42.38 41.23 41.81 44.97 45.18 48.37 51.22 52.47 47.29 49.72 44.82 44.09 52.73 52.63 52.94 56.69 57.68 57.68 57.97 52.88 51.89 53.80 49.62 59.99 59.49 56.24 57.09
43.05 42.41 42.33 41.18 38.83 39.34 38.70 39.26 38.88 38.34 38.52 38.27 38.80 40.12 41.07 42.00 43.36 41.27 41.18 44.18 45.67 47.06 48.94 50.49 51.36 44.60 43.60 42.90 44.01 54.69 54.53 57.13 56.45 59.42 57.27 58.75 58.02 54.60 56.17 60.43 62.61 59.97 58.39
41.39 40.45 38.73 37.25 38.20 38.68 37.41 37.36 37.57 37.44 36.57 36.47 36.89 38.15 40.84 41.49 42.06 41.91 40.92 41.16 44.50 46.30 47.70 50.16 50.52 43.49 42.23 42.03 42.48 46.18 44.95 47.41 58.67 58.40 56.37 56.57 56.76 56.29 58.25 59.73 61.49 61.81 62.51
38.72 36.00 36.24 36.65 36.85 36.98 36.76 36.30 35.63 36.24 35.22 34.90 36.20 36.49 38.21 40.40 41.15 43.07 41.98 40.60 41.06 44.62 48.36 47.61 43.43 42.89 42.41 42.39 41.40 43.48 42.72 52.58 56.31 55.51 53.84 55.81 58.03 59.63 61.28 59.90 60.98 61.57 61.39
34.52 34.34 35.01 34.66 34.85 35.89 36.21 36.08 35.65 35.32 34.84 35.26 35.50 36.11 37.62 39.20 40.45 43.50 46.29 45.65 42.85 44.46 45.52 48.25 46.99 45.97 44.69 48.74 48.44 46.54 50.73 54.47 53.67 54.77 54.12 57.00 58.95 58.91 58.76 59.04 58.76 59.71 60.28
33.46 33.42 33.22 33.39 33.15 33.72 34.53 34.82 35.33 36.42 36.74 35.83 36.41 37.29 37.06 37.53 40.45 39.62 38.92 41.89 44.21 45.54 47.05 50.36 49.86 50.28 48.94 50.59 52.10 51.88 52.83 54.92 55.45 55.55 56.50 57.19 57.92 58.61 58.72 60.44 60.70 60.74 60.32
31.34 31.03 31.15 31.69 31.92 32.76 33.24 33.21 35.96 35.96 36.12 35.94 36.09 36.90 38.16 38.47 37.75 37.83 37.79 37.61 37.44 37.57 44.56 48.76 48.97 50.25 50.74 51.89 52.50 52.13 52.48 52.89 54.69 56.27 57.50 58.12 58.29 59.24 59.20 60.06 60.80 60.58 60.75
29.90 29.95 30.23 31.13 31.73 32.16 32.77 33.24 32.92 35.90 37.11 36.71 36.17 36.11 36.57 36.76 37.10 37.27 37.37 36.92 36.63 37.09 43.75 47.79 50.21 53.10 51.60 52.19 53.30 53.29 51.37 54.15 56.08 56.74 57.34 59.22 59.74 60.23 58.05 59.13 59.70 60.22 59.95
30.26 31.53 31.34 31.67 32.20 32.56 33.52 33.96 34.79 34.46 34.17 35.72 37.02 36.50 36.71 36.39 36.36 36.40 36.52 37.00 41.07 39.67 46.38 45.79 47.49 53.80 51.54 51.78 53.49 54.43 55.04 55.13 57.83 58.87 60.24 60.21 60.48 59.67 59.34 59.44 59.61 59.81 59.99
30.30 30.34 31.30 31.95 32.70 33.73 34.74 35.30 35.87 35.84 35.48 35.67 36.62 37.48 37.40 36.48 36.38 36.21 36.38 39.04 41.85 46.18 46.36 47.26 50.47 52.51 53.32 52.44 53.89 55.50 56.52 56.50 57.09 59.24 59.64 59.83 60.33 60.05 59.36 60.00 59.73 48.77 51.93
29.80 31.08 32.20 32.97 34.38 35.64 38.69 40.98 41.22 38.44 37.16 36.38 36.30 36.58 38.49 37.39 37.95 38.14 38.92 40.30 41.36 43.66 48.44 49.03 51.45 52.81 53.65 54.08 55.18 55.67 58.29 56.18 58.02 58.92 59.07 59.69 60.23 60.67 59.89 59.86 59.87 58.01 58.59
30.34 31.85 32.36 35.43 37.79 38.74 39.59 39.59 41.80 39.18 38.61 36.80 36.28 37.34 34.98 38.90 38.84 38.93 39.67 41.11 42.17 43.20 47.57 50.86 52.24 52.93 54.42 54.55 55.20 56.54 58.46 58.42 59.12 59.32 59.55 59.90 60.23 59.45 60.03 59.96 60.23 60.31 59.81
31.07 33.17 35.04 35.65 37.12 37.56 37.49 39.44 41.88 39.43 38.28 37.08 37.46 37.92 33.30 38.83 40.09 39.71 40.12 42.10 43.19 44.41 47.27 51.79 51.91 50.40 53.12 53.84 55.35 56.82 58.51 58.58 59.09 59.69 59.79 59.96 59.66 59.80 59.83 59.91 60.18 59.88 59.76
31.95 33.27 33.81 34.58 35.83 35.27 37.04 37.98 39.35 40.93 39.38 38.56 38.40 38.45 38.34 38.87 39.77 41.03 41.31 44.81 45.08 45.02 45.56 49.81 48.41 52.21 49.79 50.59 52.95 58.15 58.43 58.98 60.00 60.66 60.12 59.96 59.84 60.27 60.11 59.82 59.90 59.78 59.42
31.46 31.75 31.97 32.53 33.75 34.12 35.14 35.38 36.96 36.75 39.74 39.93 39.02 38.99 39.27 39.67 40.70 40.91 42.26 45.13 46.88 47.45 45.74 46.16 46.55 50.95 51.67 50.87 52.16 56.64 58.10 60.05 60.84 60.87 61.14 60.60 60.57 56.87 60.52 60.45 60.23 60.23 59.19
30.39 29.84 30.32 31.28 31.66 32.01 32.65 33.30 34.48 35.44 36.43 39.15 40.84 40.53 40.36 40.42 41.66 42.13 43.17 44.77 47.79 46.95 46.94 46.72 47.12 49.94 49.50 50.90 52.37 53.41 48.85 38.89 54.52 49.71 61.16 61.42 61.20 60.76 60.89 60.55 60.20 59.78 56.37
28.88 28.57 28.93 29.65 30.05 30.64 31.09 31.46 32.22 33.57 33.97 35.83 38.25 41.84 41.15 41.98 42.12 42.69 43.11 43.87 46.12 48.23 49.09 49.15 47.93 50.36 50.89 51.55 51.61 41.37 35.87 35.34 47.76 39.15 59.48 60.68 60.48 60.37 60.52 60.49 60.13 58.79 56.45

GFSGL_sfc_wetblb_129.txt.gz
Wetbulb
60.51 60.85 61.16 61.20 61.69 62.01 62.06 62.27 62.86 63.72 63.93 64.05 64.40 64.87 65.39 66.34 67.92 68.05 67.67 67.56 66.37 66.61 66.40 65.27 65.04 66.25 63.47 62.84 62.79 61.74 60.93 60.88 58.05 60.16 62.97 65.54 67.26 68.22 68.65 69.05 69.61 69.39 69.19
59.34 59.12 59.31 59.81 60.22 60.54 60.58 61.08 61.78 61.49 61.80 61.51 61.30 61.47 62.06 62.94 65.94 65.91 65.30 65.19 64.95 64.55 64.90 64.88 64.13 64.49 64.31 64.20 63.06 62.34 61.34 62.46 60.33 59.06 61.34 62.37 64.36 66.39 66.96 67.56 68.21 67.32 68.32
58.10 58.01 58.71 58.84 59.09 59.45 59.60 59.98 59.72 59.39 59.34 59.37 59.18 58.92 59.08 59.89 61.48 62.93 63.61 63.32 64.07 64.40 64.34 64.11 63.85 63.75 62.86 63.14 63.05 62.13 61.66 61.54 61.60 60.00 59.98 62.17 62.86 63.67 64.02 66.33 67.14 68.03 68.46
57.23 57.23 57.18 57.47 57.65 57.66 58.07 58.08 57.84 57.77 57.22 56.99 57.28 56.88 56.73 57.06 57.61 58.93 59.48 60.47 61.55 62.16 63.42 64.13 63.49 63.31 63.00 62.16 61.59 62.10 62.23 61.38 60.58 59.81 59.51 59.67 60.98 63.79 63.24 62.88 63.08 65.80 66.07
56.20 55.86 55.99 56.47 56.76 56.42 56.20 56.59 57.07 57.23 56.18 56.11 55.65 56.05 56.73 57.13 56.01 57.65 58.32 58.74 58.90 59.21 60.02 60.95 62.17 62.29 59.96 60.80 61.47 61.20 61.34 59.64 59.53 58.25 58.06 58.31 59.12 59.27 60.12 62.14 62.41 62.82 65.79
55.64 54.99 55.39 55.23 55.11 55.19 56.14 56.24 56.70 55.38 55.79 55.08 55.04 54.49 56.06 55.31 49.99 47.44 49.68 53.57 54.28 55.89 56.36 57.55 59.42 58.41 57.53 54.12 54.27 54.44 57.57 59.37 58.87 57.82 56.82 55.74 59.07 58.66 60.52 60.83 62.02 61.64 61.02
54.40 54.13 53.88 53.88 53.33 53.37 53.59 53.27 54.47 55.49 56.31 54.57 54.46 54.68 53.86 53.99 47.40 45.72 46.29 50.30 50.28 51.17 53.18 54.66 55.29 55.59 55.54 58.10 55.28 52.56 52.85 51.32 52.83 58.69 57.12 57.66 57.66 59.57 60.80 61.74 61.86 62.63 62.52
53.16 52.63 52.53 52.35 51.84 52.04 52.06 52.00 54.11 53.69 52.94 50.94 50.40 50.67 49.82 48.21 43.17 43.25 44.47 45.62 45.58 46.14 47.15 49.33 50.98 52.36 53.56 53.93 54.91 55.78 57.80 57.66 56.23 57.48 58.90 59.29 60.03 61.20 62.40 62.64 61.95 60.59 60.87
51.36 51.27 51.21 51.10 50.64 50.45 50.19 50.26 49.76 48.08 47.62 46.64 45.81 43.47 42.16 44.09 43.20 42.01 42.37 43.22 42.98 43.43 44.20 44.51 44.97 46.47 45.96 43.83 47.29 48.04 52.37 55.62 53.23 49.63 49.99 50.23 49.44 48.28 51.47 60.28 59.11 56.64 56.78
50.33 50.25 50.55 50.50 49.53 47.95 46.53 45.91 46.05 44.41 42.00 40.16 40.81 42.21 43.18 44.49 43.03 41.03 41.69 43.61 41.80 41.99 42.74 44.21 44.39 44.39 42.33 42.33 45.49 46.67 49.61 52.25 53.08 53.15 56.42 54.00 50.44 55.48 48.15 57.74 60.23 55.82 58.62
50.05 49.64 48.35 46.96 44.69 44.31 44.03 42.18 39.29 39.01 38.72 38.52 39.04 39.93 41.99 43.32 43.53 40.64 40.02 40.82 41.21 41.67 41.51 42.46 44.06 42.32 41.65 41.89 42.41 47.11 49.16 52.57 51.93 52.87 54.94 56.22 57.76 60.23 61.07 60.75 60.80 60.66 56.52
46.31 44.20 43.25 43.12 42.40 39.52 37.88 37.52 37.80 37.37 36.80 36.50 36.82 38.16 40.22 41.93 41.53 40.89 39.72 39.75 41.37 41.18 41.46 43.15 44.30 41.51 41.63 41.24 41.76 43.63 43.84 45.24 51.58 52.32 53.01 52.92 56.99 58.53 61.49 61.99 61.91 60.09 60.74
41.82 40.76 40.47 38.19 37.14 37.26 37.49 37.07 36.24 36.42 35.83 35.53 36.52 36.80 37.55 40.16 42.65 41.17 40.02 39.60 39.80 41.06 42.23 41.56 40.95 40.81 41.20 42.83 40.65 42.27 41.79 49.92 50.53 50.08 51.17 54.35 57.51 60.96 61.32 60.60 60.30 59.73 61.23
38.57 37.88 35.23 35.27 37.13 37.07 36.83 36.48 35.71 34.83 34.96 35.64 36.08 36.27 37.37 39.49 40.69 41.19 42.04 44.07 42.12 42.12 42.29 42.99 43.03 42.90 42.91 45.17 45.72 44.89 50.16 50.95 51.10 51.26 51.75 56.71 59.41 57.92 58.21 58.81 56.56 55.70 55.38
33.41 33.77 35.31 34.82 34.09 34.57 35.34 35.67 35.31 35.99 36.25 35.73 36.26 36.70 36.21 36.56 38.62 39.76 40.10 40.94 39.98 39.32 38.88 41.34 45.66 45.47 45.37 48.10 50.10 51.32 52.80 52.77 50.29 51.62 54.84 57.05 56.04 56.67 57.01 58.18 56.09 52.44 53.82
33.29 33.11 32.66 32.35 32.51 33.37 34.25 34.82 36.66 36.74 36.92 36.54 36.41 36.29 36.95 37.00 36.90 36.91 37.02 36.99 36.92 36.99 37.84 39.36 44.88 46.07 47.31 48.85 49.27 51.04 52.86 50.14 52.01 54.46 55.73 57.38 57.23 56.45 54.26 54.79 55.67 53.89 53.25
30.42 30.78 31.05 31.54 32.18 33.35 34.04 33.77 32.69 35.75 37.58 37.49 36.89 36.78 36.79 36.58 36.75 36.54 36.49 36.01 36.07 36.27 37.45 41.24 44.53 46.65 48.32 48.56 51.50 52.93 52.79 53.95 55.45 55.20 55.38 56.70 56.67 56.84 51.25 52.39 54.31 55.51 55.75
31.11 31.67 31.32 31.66 32.75 33.77 33.97 34.10 34.75 34.39 34.79 37.21 39.55 39.19 38.36 36.90 36.46 35.95 35.75 35.82 36.87 37.75 38.44 41.29 45.17 47.63 48.94 50.72 51.99 52.77 54.38 55.62 55.81 55.68 55.01 56.21 55.31 55.38 54.73 56.14 56.89 56.95 57.83
30.39 30.26 31.65 32.60 33.07 34.15 34.72 35.38 36.79 38.26 39.06 39.81 41.70 40.35 38.68 37.41 36.65 36.16 36.01 36.74 37.69 40.00 43.97 43.73 46.26 47.68 49.64 53.51 55.41 55.95 55.32 54.44 55.78 54.81 55.72 56.47 55.38 56.28 56.60 57.23 58.43 50.48 51.85
30.87 31.46 32.60 33.62 34.11 35.34 36.95 37.52 37.96 37.79 38.21 39.42 40.58 39.70 39.88 38.80 38.72 38.18 38.15 38.29 40.02 42.86 42.19 44.82 49.17 49.60 51.81 54.32 55.02 53.98 53.78 54.47 54.48 55.67 57.80 56.01 55.75 56.42 56.35 56.39 58.77 59.31 60.16
31.84 32.72 32.42 34.10 35.53 36.24 37.03 36.16 36.62 37.18 37.09 37.67 40.48 40.66 33.67 37.87 38.80 39.75 39.55 39.95 43.08 43.43 47.12 48.60 49.02 52.56 53.14 53.92 53.61 53.66 53.71 54.18 55.25 55.35 54.76 54.78 58.00 58.07 56.85 60.03 58.70 59.58 59.80
32.03 32.48 32.54 33.05 34.92 35.74 35.02 35.59 35.57 35.81 36.35 36.80 39.21 41.04 34.50 40.47 40.13 41.34 41.25 42.20 44.00 46.46 47.90 48.79 50.20 53.01 53.07 54.08 54.56 54.62 53.91 53.70 55.65 53.27 52.61 54.23 57.59 59.91 59.52 60.42 58.02 59.11 58.74
31.82 31.55 31.12 31.63 32.81 32.89 33.52 33.88 34.16 34.63 34.64 35.74 37.37 40.16 40.68 41.19 41.49 41.81 43.30 43.95 45.89 48.67 47.72 47.82 50.76 53.23 54.34 55.01 56.52 56.32 55.61 56.76 58.84 58.80 58.79 60.43 60.53 60.61 60.76 58.54 59.64 59.06 57.59
31.73 31.83 30.33 30.41 30.63 31.20 31.62 31.71 31.88 32.71 33.35 34.52 35.83 37.33 41.28 41.44 42.23 41.95 43.26 45.38 47.20 45.52 47.32 48.42 50.71 52.93 55.37 55.56 55.73 57.44 56.78 57.43 58.06 57.26 59.05 61.72 60.71 58.34 61.23 59.55 59.32 59.88 58.21
32.09 30.18 30.28 29.96 29.48 29.77 30.90 31.10 31.28 31.99 32.33 33.22 34.13 35.80 37.98 42.66 42.55 42.65 44.67 45.53 46.91 46.55 47.56 49.21 50.19 53.44 55.42 54.92 56.10 54.35 43.71 37.69 49.86 44.63 58.29 61.92 61.25 61.13 60.42 59.90 59.22 57.44 58.92
31.08 30.49 29.98 29.11 28.82 29.00 29.26 29.41 29.71 30.67 30.53 31.63 32.58 34.11 35.67 38.67 43.28 44.13 44.45 46.26 47.56 47.81 48.69 50.25 52.30 53.07 54.50 55.84 51.83 39.99 36.06 38.06 44.17 39.32 51.57 61.83 61.12 60.54 60.81 60.05 59.51 58.09 59.42

GFSGL_sfc_wetblb_132.txt.gz
Wetbulb
62.74 63.51 63.93 62.84 62.50 63.39 63.05 63.14 63.85 64.18 64.02 63.02 62.71 62.97 62.95 63.29 64.11 64.67 65.48 65.09 63.90 63.89 64.07 62.96 62.24 63.23 62.15 61.26 60.11 59.48 58.05 57.36 54.73 55.90 57.93 59.49 60.28 61.52 61.90 62.88 65.14 65.94 65.80
61.29 61.15 61.88 62.20 61.78 62.31 62.24 62.08 62.50 61.69 61.61 60.89 60.61 60.62 60.53 60.69 61.61 62.72 62.68 62.75 62.83 62.47 62.55 62.01 61.60 62.38 61.87 61.65 60.58 58.87 58.47 58.19 56.46 54.09 56.72 57.23 57.79 59.67 62.62 63.15 63.74 64.06 64.07
59.19 58.60 60.33 61.57 60.97 60.90 61.01 61.15 60.95 59.93 59.18 59.08 58.57 57.89 57.68 57.84 58.08 58.58 59.05 59.28 60.59 61.51 61.44 60.95 60.67 60.87 60.18 60.01 60.44 60.34 59.91 59.69 58.42 56.91 56.17 57.43 56.77 57.80 58.22 60.17 61.00 61.41 64.70
57.87 57.38 57.91 59.02 59.04 58.33 58.42 58.58 58.38 58.37 57.43 57.22 57.17 56.71 56.63 56.32 56.25 56.10 56.01 55.90 56.04 56.51 57.64 58.55 59.99 60.27 59.53 59.29 59.37 58.91 59.25 58.30 57.97 57.11 55.91 55.05 55.32 56.99 57.49 57.98 57.27 59.76 60.95
56.83 56.25 56.58 57.26 57.44 57.25 57.06 57.02 57.23 56.89 56.12 56.01 55.17 55.00 55.47 55.36 55.28 54.10 54.20 53.17 53.52 53.54 54.50 55.11 55.16 56.48 56.22 56.58 58.41 58.07 57.97 57.19 56.56 55.66 55.08 55.17 55.07 53.91 56.68 57.54 56.20 57.28 59.38
55.71 54.98 55.40 55.19 55.07 55.20 55.54 55.77 55.74 55.27 55.47 55.62 54.76 54.10 53.56 54.22 49.31 46.35 47.15 48.87 50.41 50.90 50.96 52.24 53.36 54.32 54.40 52.62 52.42 53.33 55.75 55.97 54.89 54.77 54.28 53.74 54.07 54.22 54.42 54.98 55.49 55.42 54.54
54.69 54.44 54.23 53.99 53.11 53.09 53.68 53.52 53.15 53.31 53.80 52.77 52.77 53.12 52.43 51.89 46.15 42.72 44.06 45.35 45.86 47.07 47.58 47.93 48.67 50.65 50.62 51.83 51.95 51.63 51.92 50.30 51.08 54.57 53.84 54.26 53.98 54.59 54.61 53.95 53.71 54.40 55.58
53.65 53.20 52.97 52.46 51.65 51.74 51.28 51.15 51.63 51.07 49.77 48.89 48.80 48.73 48.50 47.95 43.77 42.08 42.68 43.24 44.04 45.25 45.56 45.75 45.37 45.66 46.65 47.41 48.44 48.86 50.07 51.64 52.52 54.58 54.64 54.89 55.95 56.11 55.78 54.79 54.82 55.66 57.91
52.10 51.60 51.60 51.08 50.07 50.08 48.79 47.56 46.99 46.51 46.20 45.92 45.46 44.45 42.81 41.40 41.66 41.47 42.40 43.55 44.44 43.84 44.44 44.61 44.65 44.97 44.16 42.25 43.74 44.28 46.15 47.58 49.06 49.15 48.59 49.05 47.98 46.76 49.13 54.83 53.93 52.90 52.43
50.92 50.55 50.36 48.67 47.39 45.82 45.23 44.76 44.60 43.96 40.89 39.53 39.03 40.24 40.66 40.14 41.34 40.86 41.56 42.86 42.19 42.39 43.34 43.82 43.66 43.23 41.69 41.06 42.26 43.35 43.26 44.72 46.28 47.64 53.14 51.93 50.27 52.06 47.65 50.77 53.02 52.13 52.59
48.96 47.14 46.47 45.83 44.31 43.84 42.65 40.76 38.33 37.74 38.07 38.29 38.35 38.56 38.90 39.68 39.89 40.02 40.67 41.06 40.93 40.54 40.67 41.24 42.84 41.72 40.71 40.28 40.58 42.40 42.42 44.31 45.70 47.79 50.87 52.41 52.77 53.00 54.05 54.21 55.92 55.98 54.67
46.09 44.53 43.53 42.53 41.70 39.53 36.82 36.93 37.53 37.74 37.59 36.96 36.68 36.78 38.35 39.92 40.71 40.58 39.96 40.04 41.00 40.26 39.91 41.66 42.74 40.80 40.01 39.96 40.17 40.90 40.60 42.28 45.55 46.79 49.79 50.33 50.59 51.15 53.12 56.00 57.27 58.59 59.63
41.94 40.95 39.95 38.51 35.81 36.10 36.01 36.79 35.72 36.72 36.21 35.65 35.24 35.47 36.63 39.27 40.47 40.62 40.08 39.54 39.86 39.67 41.14 41.72 40.27 39.83 39.56 39.73 40.29 40.45 41.04 43.54 45.18 45.47 47.85 49.32 50.85 52.13 54.87 55.77 56.86 58.45 59.22
37.63 37.04 34.56 34.01 34.91 36.20 35.36 35.10 35.02 35.49 34.98 34.76 34.81 35.10 36.29 37.87 38.75 40.17 41.08 41.77 41.76 42.48 42.19 40.83 40.53 40.03 40.95 41.97 42.36 44.05 45.40 46.63 46.92 47.04 48.12 49.57 51.11 53.13 53.76 55.48 55.90 56.96 56.92
34.95 32.86 32.69 34.15 32.64 32.70 33.27 34.10 34.83 36.32 36.29 35.09 35.17 35.64 35.04 35.35 37.68 38.89 38.88 39.59 41.09 39.95 38.02 38.79 39.23 40.66 43.46 43.37 44.35 45.58 47.45 47.67 48.18 48.77 48.93 49.83 50.90 53.05 53.90 56.12 56.36 54.62 53.14
30.55 30.65 30.80 31.14 31.54 31.87 32.60 33.99 36.53 36.71 36.99 36.79 36.53 36.49 37.13 37.09 37.04 37.10 37.15 36.82 36.75 36.71 36.42 36.58 37.03 39.02 44.02 44.45 45.22 46.32 48.14 48.13 49.08 49.88 50.07 50.54 51.10 52.71 54.01 56.00 54.89 52.77 51.79
29.79 29.90 30.48 31.16 30.98 31.64 32.36 32.86 32.40 35.55 37.35 37.59 37.10 37.20 37.29 36.84 37.01 36.98 37.02 36.31 35.68 35.58 35.68 36.31 37.25 40.03 44.55 46.28 46.95 48.01 48.50 50.60 51.48 51.44 51.52 52.53 53.24 54.16 52.09 54.57 53.00 52.40 51.32
30.91 31.60 30.93 30.92 31.48 32.01 32.51 33.07 34.08 34.06 34.33 36.78 39.40 39.26 39.54 38.25 37.39 36.57 36.21 35.91 35.63 36.01 36.53 37.44 38.52 41.52 44.73 45.92 48.44 49.05 50.24 51.72 52.23 52.65 53.16 53.77 54.36 54.26 52.77 53.13 53.24 52.03 51.49
30.82 30.79 31.38 32.15 32.87 33.90 34.47 35.05 36.28 37.25 37.30 37.72 38.94 39.75 39.62 38.46 37.56 36.89 36.30 36.44 36.31 36.99 38.63 39.75 41.28 43.61 45.01 46.42 47.91 50.82 52.57 52.64 53.13 54.09 54.24 54.63 54.87 54.65 52.07 52.22 52.53 45.94 48.37
30.97 31.96 32.52 32.87 32.99 34.16 35.68 36.38 35.96 35.57 35.91 36.39 36.89 37.80 41.26 39.34 38.76 39.29 38.36 38.01 37.73 38.59 41.01 43.04 44.07 44.52 46.23 48.32 49.99 52.57 53.46 52.94 53.84 54.36 54.63 55.05 54.99 54.69 53.61 53.01 53.68 53.32 54.14
31.35 31.71 31.79 32.33 32.51 33.42 35.20 34.00 34.55 34.62 34.62 34.97 35.66 37.78 34.88 37.97 38.81 39.25 40.34 39.61 39.72 40.97 42.63 44.44 46.10 48.77 51.44 52.17 52.93 54.10 54.10 54.12 54.52 55.38 55.42 55.13 55.15 54.57 55.64 55.42 55.60 55.25 55.68
31.22 31.52 32.06 31.50 31.94 31.86 31.89 33.12 32.91 32.89 33.40 33.46 34.75 36.81 35.46 39.46 41.62 41.02 41.91 41.69 42.50 44.41 45.91 47.08 46.97 48.08 52.30 53.19 53.62 54.24 54.14 54.04 54.77 55.36 56.07 55.41 55.36 55.88 55.50 53.83 54.63 54.27 55.42
31.72 31.14 31.23 30.98 31.09 30.75 31.47 32.13 31.95 32.24 32.40 32.92 33.76 34.97 36.84 40.15 41.84 42.28 42.82 44.39 44.80 45.74 47.24 46.85 47.22 50.39 53.55 53.87 54.95 54.63 54.24 54.65 55.35 55.93 54.99 55.11 55.04 54.93 55.11 55.04 55.40 57.21 57.00
31.53 31.23 30.57 29.61 29.73 29.53 29.86 30.12 30.73 30.91 31.40 31.97 32.53 33.70 35.04 36.76 41.91 43.12 43.54 45.50 46.18 47.13 46.06 47.03 47.86 50.64 53.88 53.95 54.98 54.23 52.24 52.76 55.62 57.18 56.56 54.75 54.57 53.79 56.14 55.94 56.78 58.20 57.07
31.00 30.72 30.20 29.20 28.97 28.60 28.69 28.84 29.20 29.56 29.87 30.79 31.24 32.00 33.30 35.12 37.68 41.82 44.37 46.59 47.10 46.25 46.45 47.39 48.75 50.62 54.14 53.81 49.84 48.82 39.62 37.18 49.01 40.63 54.57 54.86 54.89 55.01 56.12 57.68 57.59 56.72 56.77
32.61 31.94 30.60 29.80 29.31 28.97 28.89 28.61 28.43 28.69 28.71 29.49 30.20 30.96 31.83 33.28 35.10 37.58 42.33 45.84 46.57 47.49 47.38 47.83 49.16 51.31 53.03 49.76 47.03 38.23 37.13 36.74 44.63 38.99 44.55 50.96 54.85 59.27 58.62 58.40 57.73 57.07 56.55

GFSGL_sfc_wetblb_135.txt.gz
Wetbulb
54.58 54.81 54.70 54.78 54.88 55.23 55.14 55.63 55.87 56.02 56.49 56.64 56.81 56.71 57.07 57.59 58.44 58.69 59.43 60.79 61.36 60.46 60.12 59.92 59.33 59.19 58.51 58.16 57.25 56.46 55.26 53.38 53.26 52.87 52.72 54.53 55.31 55.66 57.05 58.08 60.13 62.56 63.20
53.23 52.81 53.00 54.16 54.08 53.37 54.10 55.03 55.66 55.15 55.65 55.74 55.66 55.41 55.45 55.55 54.66 54.87 55.92 57.80 58.60 58.80 59.96 59.71 58.72 60.91 58.72 57.79 57.63 57.31 56.26 54.25 52.83 53.67 52.24 52.49 53.89 54.66 55.20 56.36 60.54 63.47 60.39
52.76 52.08 51.54 52.46 52.68 52.36 52.44 53.04 53.25 53.41 53.37 53.39 53.98 53.64 54.06 53.96 53.20 52.58 52.93 53.30 53.07 53.46 55.51 57.00 58.07 58.35 57.98 58.35 58.31 57.94 57.07 58.06 56.65 55.28 54.87 55.05 54.96 54.79 53.69 54.32 55.73 56.83 60.06
52.17 51.23 50.68 51.19 51.48 51.47 51.94 52.19 52.52 53.45 53.11 52.58 52.39 52.91 52.89 52.60 52.69 52.26 52.26 50.72 50.21 51.03 51.71 51.79 51.96 51.77 52.65 52.42 54.37 56.15 57.15 56.29 56.45 55.75 55.38 53.58 51.69 52.24 51.72 51.63 52.20 56.04 56.81
51.65 50.62 49.78 49.99 50.17 50.31 50.18 50.46 51.29 51.57 52.04 51.48 51.22 50.91 50.60 51.13 52.70 47.43 47.00 47.12 46.95 47.51 48.76 50.19 50.61 52.50 54.30 52.52 51.65 50.23 52.31 53.64 55.00 54.39 53.93 54.28 53.79 50.41 49.80 51.83 53.79 54.90 54.86
49.92 49.47 50.30 49.96 49.84 49.00 48.59 48.67 48.61 48.73 49.09 49.34 48.96 49.06 48.20 51.07 44.75 45.22 44.27 42.37 44.15 44.89 45.28 46.78 47.88 49.72 49.86 50.19 50.16 50.76 50.17 49.64 48.92 50.97 52.58 52.22 52.38 50.22 51.54 52.60 51.61 51.99 49.66
49.55 50.16 50.43 49.52 48.69 47.59 47.27 46.79 46.07 44.76 44.14 44.15 44.31 45.36 45.18 45.11 45.27 42.70 43.58 41.61 41.15 41.42 42.25 43.20 44.77 47.52 48.05 47.70 47.70 48.37 48.40 48.90 49.44 49.34 47.77 50.35 51.42 51.06 50.65 50.61 50.54 50.60 50.44
48.90 48.85 49.07 48.07 46.46 45.36 44.10 43.01 42.30 42.61 42.29 42.19 42.68 43.05 42.26 43.01 43.40 41.53 42.06 41.57 41.96 42.54 43.40 44.22 44.48 44.60 44.56 44.99 45.06 44.77 45.17 46.86 48.14 49.94 49.17 49.43 50.38 52.36 52.40 53.47 51.06 50.26 51.79
47.93 46.35 45.51 45.03 43.21 42.38 41.05 40.51 41.00 40.71 40.47 39.48 38.98 39.03 39.63 40.25 40.98 40.77 40.73 40.59 41.41 41.49 42.71 44.19 43.99 43.21 42.96 41.73 43.56 42.82 42.43 42.96 45.81 46.64 46.41 45.41 45.07 45.46 47.89 52.87 50.42 51.26 49.63
44.21 43.94 43.76 42.56 41.02 39.93 39.32 38.86 37.29 36.40 37.26 38.69 38.57 39.23 39.73 39.27 39.80 39.50 39.78 40.26 39.36 39.85 42.56 43.05 43.58 43.10 41.44 40.92 41.69 41.23 40.65 42.43 43.78 44.77 46.14 46.41 46.64 49.47 47.73 51.12 51.08 49.24 50.53
43.13 42.29 41.31 39.29 38.05 37.70 36.07 35.53 36.39 36.91 37.09 37.40 37.60 38.60 39.01 39.40 38.87 39.18 39.31 38.99 38.75 39.50 40.10 40.67 41.79 40.93 40.13 39.77 40.01 41.83 41.27 42.55 42.68 43.05 43.43 44.56 45.85 47.57 52.28 52.87 52.16 51.85 50.11
39.23 38.59 37.73 36.72 35.79 35.14 34.92 35.94 36.10 36.27 36.31 36.09 36.40 36.81 38.13 38.68 39.65 39.56 39.45 39.40 40.34 39.53 39.40 40.79 41.25 40.04 39.62 39.09 39.51 40.20 39.48 40.87 42.36 42.25 42.87 43.71 46.07 48.29 51.59 52.89 53.88 53.68 53.25
35.56 34.69 34.48 33.40 33.07 35.18 35.04 35.37 34.92 34.66 34.57 34.80 35.42 35.32 36.04 37.48 38.44 39.76 39.46 39.11 39.72 39.88 40.88 40.94 39.86 39.25 38.97 39.60 40.03 39.64 39.98 41.24 41.26 41.36 42.27 44.41 46.72 50.15 52.18 52.89 54.54 55.49 55.29
32.59 31.57 31.27 31.32 33.05 34.22 33.17 33.56 33.19 33.08 33.33 34.11 34.60 34.53 35.33 36.18 37.14 38.45 39.26 40.21 41.15 41.76 42.10 41.16 40.08 39.72 39.59 40.38 41.41 42.03 42.03 42.04 42.53 43.46 44.08 46.34 47.39 50.14 50.17 50.27 51.90 52.26 51.51
30.26 29.73 31.02 31.64 31.26 31.43 32.38 32.66 33.07 34.34 34.95 34.53 34.98 35.39 34.89 34.52 36.55 37.82 37.82 38.09 38.87 39.34 39.05 38.41 37.59 38.13 38.43 39.62 42.87 43.05 43.57 44.71 45.16 46.40 46.89 47.07 48.56 49.79 51.12 52.51 51.98 52.07 52.09
28.70 29.81 29.93 30.75 31.01 31.36 31.19 31.95 35.27 35.83 36.50 36.43 36.38 36.36 37.14 37.22 37.25 37.13 37.25 36.89 36.83 36.81 36.24 35.15 35.22 36.52 37.00 38.65 41.63 44.32 45.44 46.01 47.62 47.77 48.18 48.25 48.69 49.87 49.93 52.06 52.08 53.13 53.34
29.44 29.76 30.18 30.99 30.73 30.67 31.50 31.78 31.10 34.62 37.03 37.34 36.93 37.14 37.44 37.50 37.74 37.46 37.28 36.62 35.91 35.64 35.09 35.68 35.26 36.12 37.57 40.19 42.32 46.22 46.35 47.53 48.54 48.71 48.11 48.66 49.00 50.06 48.37 51.01 52.07 51.95 50.39
30.63 31.80 31.09 30.82 31.36 31.89 32.32 32.86 33.70 33.52 34.18 36.45 37.98 38.05 38.21 38.04 37.73 37.27 36.69 36.36 36.02 35.86 35.69 35.86 36.66 37.99 39.44 41.02 43.57 45.70 47.01 48.59 49.70 49.90 49.36 49.82 50.54 51.48 51.42 53.03 52.40 49.69 49.28
30.23 30.53 31.68 32.18 32.70 33.25 33.70 34.10 35.52 35.81 34.72 35.31 36.56 37.40 37.90 37.87 38.01 37.39 37.08 36.52 36.17 36.54 37.30 37.66 38.61 38.70 39.99 41.82 44.53 46.18 47.51 48.46 51.04 49.50 49.90 51.08 52.05 52.55 51.19 52.13 51.27 43.25 45.51
31.04 31.90 32.32 32.10 32.18 32.19 32.75 32.97 32.89 33.19 33.16 33.66 34.15 34.74 36.63 36.58 37.59 38.84 39.82 38.62 37.90 38.02 38.31 39.69 42.20 43.62 44.42 44.90 45.22 46.74 48.22 49.99 48.94 50.13 50.60 51.36 53.14 53.35 51.34 51.43 52.12 50.05 51.02
30.87 31.35 31.29 32.04 31.80 31.61 31.52 31.47 32.43 32.35 32.12 32.41 33.05 34.63 33.56 34.60 38.01 39.82 40.13 40.17 39.38 39.64 40.68 42.50 44.51 46.57 47.08 47.80 50.95 50.56 51.00 51.00 50.47 51.21 52.18 53.26 52.92 53.17 52.54 52.81 52.60 52.96 53.42
31.29 31.63 31.49 30.40 30.61 30.28 30.61 31.28 31.23 31.17 31.35 31.39 32.25 33.61 33.40 36.67 38.03 40.73 41.24 42.11 42.10 42.57 44.23 45.37 46.11 46.44 47.23 52.01 52.65 52.63 52.08 50.73 50.99 52.11 53.66 54.04 53.62 54.04 54.13 53.82 54.35 54.68 54.56
31.41 31.15 30.48 30.13 30.08 29.96 29.67 30.06 29.84 29.75 30.11 30.38 31.36 32.05 32.88 34.20 36.30 38.71 42.07 43.21 43.59 44.38 45.46 45.81 45.60 46.90 49.39 53.09 54.36 53.77 53.21 53.28 52.62 53.98 54.17 54.67 54.63 54.49 54.49 53.62 54.35 54.00 54.04
32.77 31.90 30.66 30.06 30.03 29.37 29.39 29.28 29.37 29.18 29.20 29.61 30.31 30.85 31.44 32.36 34.40 36.31 38.50 42.62 44.63 45.57 45.86 46.16 47.01 47.69 50.06 51.61 50.75 49.97 48.00 53.88 55.33 55.57 55.03 54.19 54.07 52.72 54.69 54.85 54.62 54.56 54.91
33.74 32.73 31.89 30.79 30.18 29.39 29.45 29.56 29.47 29.10 28.67 28.84 28.99 29.51 30.23 31.51 32.65 34.10 36.59 39.33 41.64 44.78 46.34 46.88 47.52 48.75 51.66 49.95 48.07 46.65 38.42 36.97 47.28 42.59 54.45 54.69 54.31 54.84 54.66 53.85 53.47 55.31 52.89
32.76 31.55 31.20 31.59 31.19 30.23 29.80 29.54 29.54 29.50 28.56 28.65 28.74 29.07 29.51 30.30 31.27 32.55 34.43 36.30 37.44 41.25 46.00 47.48 48.04 49.23 50.94 49.82 44.80 37.69 35.79 36.39 41.01 38.78 51.65 52.58 52.51 51.98 52.38 52.85 54.96 54.56 50.02

GFSGL_sfc_wetblb_138.txt.gz
Wetbulb
52.28 51.67 52.83 52.64 52.76 52.55 52.78 52.71 52.66 52.68 52.96 53.70 54.40 54.04 53.99 53.83 53.81 52.78 52.58 54.49 55.84 56.97 58.50 58.86 58.93 58.71 58.07 58.03 57.37 56.35 54.78 52.65 53.14 55.39 51.68 51.93 53.27 55.80 55.95 57.03 58.38 57.96 60.48
50.92 50.64 50.65 51.42 51.20 50.48 50.50 50.83 51.31 51.35 52.12 52.21 52.69 52.95 53.08 52.90 51.71 51.23 51.38 51.88 52.15 52.19 53.39 54.47 56.49 59.29 57.15 56.75 56.55 56.73 55.91 55.38 53.88 54.32 52.43 51.77 52.34 53.59 53.40 53.30 55.73 60.05 59.53
50.41 49.67 49.21 49.41 49.14 48.74 49.11 49.63 50.02 50.33 50.91 51.23 51.72 51.69 52.52 52.61 51.79 50.90 50.59 50.63 49.97 49.88 50.34 50.44 50.75 50.69 49.78 52.33 52.27 54.27 55.01 56.31 54.95 55.08 55.09 53.24 52.65 52.56 53.25 53.92 55.78 55.30 57.66
50.27 49.20 48.59 48.01 48.05 47.78 47.94 48.02 48.40 49.18 49.18 49.35 49.56 50.12 50.12 50.14 50.34 49.32 48.45 46.88 46.55 47.60 48.69 48.94 49.11 49.17 48.54 49.31 49.59 49.11 50.23 50.57 52.13 53.01 53.99 54.33 52.42 53.34 51.27 51.07 49.95 51.85 53.82
49.17 47.97 47.48 47.60 47.50 47.58 47.02 46.42 46.89 46.71 46.42 46.89 46.70 46.62 46.76 47.33 49.17 46.31 44.79 43.80 43.24 44.10 45.69 46.72 47.47 49.13 51.90 50.74 48.69 46.78 46.77 47.11 49.32 50.73 51.03 52.50 52.60 50.73 49.53 51.23 51.01 51.89 53.09
48.29 48.07 48.84 48.43 47.89 45.49 45.00 44.87 43.90 43.39 43.06 43.45 43.53 44.13 43.70 45.94 45.56 45.54 44.96 41.63 41.82 41.71 41.49 42.98 43.94 46.23 46.93 48.56 49.29 49.81 48.85 45.57 45.41 46.34 47.34 48.92 51.39 50.81 50.27 49.76 50.52 49.93 49.07
48.04 48.76 47.94 46.15 44.95 43.85 43.58 42.68 41.43 40.72 40.53 40.34 40.61 41.43 41.31 41.89 43.25 43.11 44.23 41.26 39.85 39.98 40.10 40.73 41.75 44.38 45.92 45.50 46.54 47.60 47.36 47.35 47.84 46.00 44.91 46.68 48.51 50.95 51.92 50.09 50.62 49.86 49.06
44.47 44.29 44.49 43.35 42.65 41.70 40.83 39.93 39.17 38.76 38.40 38.70 39.05 39.27 38.70 39.47 41.19 41.00 41.79 40.85 40.78 40.62 40.84 41.79 42.36 43.06 44.64 45.26 44.96 43.98 43.95 44.94 45.39 46.25 46.66 48.04 49.92 52.08 50.28 51.19 51.38 50.84 49.62
42.47 42.12 42.21 41.20 39.81 39.21 38.29 37.37 37.28 36.10 35.74 36.16 36.99 38.10 38.78 39.16 40.40 40.10 40.23 39.77 39.06 39.43 41.19 42.28 41.60 42.14 43.19 41.99 43.06 42.25 42.70 42.96 44.73 44.19 43.69 42.71 42.27 43.08 45.36 47.95 47.67 50.26 49.65
40.25 40.34 40.32 39.08 37.91 36.75 35.74 34.63 33.77 34.43 35.34 37.54 37.26 38.08 39.25 39.00 39.80 39.66 39.66 38.83 38.10 38.63 39.49 40.50 42.22 42.31 41.31 41.12 42.21 41.62 40.29 40.61 41.51 42.03 43.72 44.26 43.92 45.17 44.64 46.75 47.92 48.04 50.80
39.05 38.12 37.36 36.43 34.48 34.24 33.20 32.90 33.74 35.93 36.48 36.58 36.73 37.57 37.90 37.92 38.31 39.16 39.25 38.61 38.24 38.25 38.83 39.68 41.01 41.07 40.06 39.60 39.66 40.98 40.83 42.11 42.07 42.18 42.33 42.87 43.50 43.51 43.94 45.72 49.29 49.26 48.84
36.50 35.28 34.06 33.06 32.73 32.94 31.68 34.33 35.80 35.43 34.84 34.55 35.01 35.14 36.70 38.29 39.44 39.02 38.63 38.88 39.60 38.74 38.82 40.14 40.75 39.85 39.21 38.92 39.37 39.73 39.17 40.12 41.37 41.31 41.39 41.66 41.87 43.32 45.22 45.81 47.77 52.01 53.10
32.97 31.61 30.75 30.77 31.06 32.15 33.99 32.96 32.32 33.50 33.14 33.12 33.71 34.32 35.39 37.16 37.94 38.83 38.49 38.51 39.18 39.28 40.23 40.81 40.08 39.45 38.93 39.25 39.25 39.32 39.53 40.59 40.61 40.30 40.53 40.91 42.15 44.24 46.45 48.35 50.39 52.90 53.43
29.47 28.56 28.71 29.11 31.40 32.36 32.51 32.73 32.20 32.22 32.29 32.56 33.04 33.71 34.93 35.94 36.82 38.14 38.74 39.28 39.84 40.28 40.99 41.05 40.49 39.40 39.12 40.02 40.41 40.89 41.88 42.38 41.14 40.61 40.87 41.93 43.68 45.18 46.46 48.22 50.46 51.46 50.94
28.15 28.23 30.35 30.96 31.05 31.22 32.05 32.26 32.34 33.44 34.02 33.51 33.98 34.65 34.46 34.31 36.38 37.86 37.63 37.61 38.33 38.52 38.21 37.93 37.45 37.37 37.21 37.91 38.80 39.69 41.20 43.60 42.27 42.42 42.63 43.76 45.13 46.12 46.61 48.65 50.11 50.36 50.01
28.55 29.85 29.93 30.72 31.27 31.44 31.16 31.81 34.80 35.41 36.11 35.98 36.15 35.88 36.81 37.19 37.25 37.57 37.65 37.58 37.12 36.84 36.31 35.74 35.48 36.59 36.07 36.83 37.17 38.91 41.22 44.49 44.75 45.22 46.41 46.84 47.05 47.81 48.60 50.28 51.14 49.72 48.70
29.63 29.83 30.41 31.03 30.74 30.77 31.38 31.83 31.32 34.81 37.25 37.25 36.73 36.94 37.21 37.13 37.27 37.38 37.57 36.83 36.10 36.00 35.78 35.79 35.81 36.52 36.87 37.03 38.30 39.78 41.52 46.18 47.75 47.54 47.72 47.94 48.19 48.58 47.43 49.42 49.88 50.97 50.08
30.41 31.82 31.05 30.92 31.56 32.21 32.57 32.80 33.26 33.70 33.27 33.68 36.13 36.47 36.68 36.61 36.44 36.49 36.64 36.82 37.32 37.13 35.99 35.60 35.90 36.81 37.19 38.32 39.95 41.23 43.08 45.33 46.79 48.06 48.08 48.47 48.71 48.70 48.88 49.17 49.83 50.73 51.68
31.06 30.97 31.76 32.13 32.54 32.96 32.59 32.56 32.77 32.89 32.97 33.00 34.05 34.98 35.50 35.87 35.68 36.46 37.33 37.89 37.02 37.12 37.89 38.17 38.94 39.06 39.27 39.79 40.65 41.84 43.52 45.34 47.04 48.65 49.79 48.85 49.62 50.36 50.32 51.60 51.09 44.21 46.42
31.35 32.20 32.45 31.95 31.19 31.23 31.35 31.14 31.48 31.73 31.60 31.98 32.20 32.78 34.40 33.72 34.52 38.09 41.00 40.79 39.06 38.81 39.40 39.48 40.31 41.40 42.22 43.47 44.21 45.02 45.70 46.52 47.27 48.16 48.39 50.35 51.70 52.55 51.56 51.78 50.97 48.38 48.46
31.49 31.48 31.08 31.15 30.60 30.58 30.32 30.14 30.38 30.18 29.87 30.21 31.02 32.76 32.18 32.15 35.15 36.87 38.96 41.45 41.39 41.35 41.27 42.08 43.40 45.04 46.24 46.52 47.25 47.29 49.00 49.54 49.74 47.83 48.46 49.69 51.35 52.26 52.29 50.97 49.80 50.23 51.85
31.92 31.85 31.24 30.47 30.82 30.37 30.18 30.61 30.08 29.48 29.22 29.10 30.08 31.47 31.59 32.72 33.66 35.12 37.28 38.73 42.41 43.91 44.54 45.05 45.47 46.00 47.00 47.65 49.11 51.28 50.71 49.24 48.88 50.14 51.30 53.10 52.37 52.31 52.42 51.79 51.46 51.47 51.99
33.50 33.12 32.01 31.43 31.22 30.35 30.25 30.43 30.08 29.51 29.03 28.99 29.30 29.76 30.27 30.81 32.13 33.63 34.99 37.23 39.69 42.17 45.32 46.45 46.75 47.27 48.84 50.66 50.79 50.14 50.92 51.65 50.79 51.51 52.12 53.68 53.59 52.81 52.78 52.66 51.99 52.15 51.37
32.55 31.67 31.39 31.53 31.55 30.37 30.17 29.88 30.04 29.84 29.62 29.30 29.00 29.28 29.26 29.95 30.95 32.14 33.68 35.31 37.42 39.02 41.16 46.05 47.66 47.75 50.56 49.55 49.11 48.57 45.88 51.01 55.33 54.57 54.65 54.53 53.47 51.74 54.05 53.75 54.05 53.85 49.39
31.49 30.56 30.41 29.97 29.94 29.75 29.66 29.63 29.55 29.64 29.60 29.69 28.97 28.97 28.92 29.67 30.20 31.33 32.65 34.08 35.15 36.26 38.88 41.84 45.78 48.82 50.87 49.19 48.02 45.68 38.26 35.90 47.20 44.79 54.74 55.06 54.38 54.07 53.82 53.60 52.89 52.73 46.72
30.16 30.22 29.82 29.11 28.78 28.77 28.69 28.75 28.70 29.17 29.10 29.65 29.54 29.25 29.01 29.23 29.63 30.32 31.59 32.62 33.40 35.18 37.55 40.37 42.84 46.43 49.24 47.34 43.81 37.09 34.69 35.18 42.62 38.80 52.83 53.77 53.01 53.23 53.51 52.87 52.49 52.94 46.76

GFSGL_sfc_wetblb_141.txt.gz
Wetbulb
50.90 50.81 50.72 50.39 50.32 50.07 49.36 49.24 49.20 49.03 49.71 50.40 51.06 51.35 51.66 51.62 51.54 50.38 50.56 51.52 50.86 50.74 51.70 53.53 54.14 55.50 55.71 56.15 56.37 55.85 54.44 53.15 52.00 54.43 52.60 53.13 51.28 52.27 55.08 57.21 59.50 58.22 57.27
49.72 49.75 49.76 49.60 48.79 48.15 48.20 48.18 48.19 47.90 48.72 49.76 50.39 50.51 50.88 50.80 49.89 49.30 49.35 49.41 49.18 49.04 49.17 49.79 50.58 53.56 50.04 51.62 53.00 53.20 53.48 53.44 51.87 53.40 53.49 51.01 51.16 52.85 52.84 52.80 54.61 56.21 55.41
48.82 48.29 48.01 47.66 47.30 46.91 47.12 46.86 47.30 47.95 47.97 47.73 48.18 48.39 48.66 48.34 48.40 47.88 47.75 47.55 47.14 47.30 47.85 47.76 47.88 48.04 46.72 47.06 48.22 48.10 48.82 51.73 51.68 53.42 54.09 53.26 52.13 51.99 52.21 52.29 53.36 54.43 56.81
48.92 47.81 47.16 46.66 46.52 45.74 45.68 45.92 46.63 46.63 45.37 45.33 45.77 46.67 46.75 46.14 46.79 47.31 46.43 45.14 44.93 45.68 45.84 46.56 46.98 46.98 46.76 46.60 48.01 47.02 47.45 46.58 47.28 48.18 49.68 51.45 52.35 53.57 51.46 52.46 52.02 50.40 51.79
48.29 46.96 46.79 46.61 45.78 44.85 44.64 44.21 44.10 43.60 43.27 43.63 43.62 43.80 43.95 44.45 45.52 44.46 44.03 43.58 42.85 42.46 43.84 44.99 45.19 46.78 49.16 49.55 48.81 46.08 44.44 44.65 45.35 45.57 45.65 46.12 48.93 49.51 48.79 50.74 49.95 52.29 51.19
46.53 45.63 45.41 44.49 44.03 42.89 42.42 41.65 40.99 40.61 40.45 40.63 40.66 40.99 40.67 42.58 43.42 44.38 44.50 41.34 41.36 40.93 40.22 40.92 41.59 44.00 44.27 46.69 47.64 48.58 47.86 44.45 43.98 43.71 43.94 43.87 45.56 48.05 50.19 49.33 48.95 48.37 49.48
43.44 43.89 43.22 42.58 41.87 40.66 40.58 39.75 38.60 37.77 37.87 37.47 37.58 38.05 37.84 38.36 40.95 41.47 42.10 39.64 39.13 39.05 38.94 39.64 40.31 42.38 43.90 43.98 45.13 46.28 46.89 47.81 47.98 45.40 42.99 43.12 43.78 46.29 49.07 49.86 48.21 48.36 50.08
41.27 41.21 40.99 39.95 38.96 38.48 37.72 36.95 36.25 35.86 35.25 34.56 34.91 35.74 36.15 37.66 40.91 40.72 41.14 40.38 39.83 39.62 39.82 39.97 40.14 41.32 42.37 42.71 43.11 44.72 44.73 44.75 44.97 46.10 45.98 46.29 46.64 47.19 46.65 49.09 49.34 49.57 48.95
39.06 38.46 38.79 38.17 36.57 35.95 35.10 34.39 33.46 32.76 33.06 33.52 35.01 37.26 36.65 36.92 39.78 40.01 40.30 39.38 38.74 38.77 39.95 40.63 40.99 40.82 41.22 41.20 42.69 42.94 42.86 43.16 45.26 45.15 44.41 43.20 42.01 41.65 42.51 43.00 42.82 45.13 46.66
37.27 36.91 36.81 36.03 34.78 33.13 32.40 31.50 31.51 31.79 32.94 35.19 36.02 37.75 38.40 38.28 39.06 38.94 38.79 38.58 37.78 38.10 39.19 39.98 41.48 41.07 40.73 40.45 40.82 41.30 40.78 41.10 42.26 42.17 42.56 42.88 42.88 43.24 43.62 43.62 43.45 43.20 44.97
36.89 35.41 34.60 33.41 31.88 31.39 30.63 30.59 32.33 34.23 35.49 35.55 35.70 36.40 36.67 36.21 36.52 38.80 39.26 38.26 37.55 37.39 38.03 38.74 40.26 40.69 40.01 39.59 39.74 40.98 40.49 41.47 41.84 42.04 41.94 42.24 42.70 42.90 43.74 44.44 45.40 45.35 44.29
33.71 32.64 31.40 30.44 30.38 31.28 29.54 32.94 32.68 32.07 33.29 33.63 34.15 33.91 35.05 35.72 38.11 38.33 38.64 38.65 38.99 37.69 37.63 39.12 40.17 39.77 39.08 38.96 39.40 39.77 39.09 40.35 40.92 40.93 40.62 40.56 41.34 41.95 42.08 43.58 44.47 44.78 45.29
30.36 28.72 28.03 28.43 29.01 29.70 30.44 31.64 32.07 32.79 32.55 32.56 33.01 33.50 34.14 35.78 37.09 38.90 38.70 38.57 39.28 38.89 39.69 40.15 40.03 39.31 39.12 39.51 39.65 39.26 39.41 40.20 40.08 39.43 39.33 40.16 41.63 43.00 43.58 44.29 45.84 46.89 46.37
27.68 27.52 28.37 28.97 30.93 31.97 32.77 32.61 32.22 31.92 31.92 32.40 32.74 33.22 34.24 35.44 36.64 37.94 38.32 38.81 39.30 39.49 39.95 39.87 40.05 39.69 39.54 39.80 39.79 39.85 40.55 40.68 40.26 40.00 40.46 41.87 42.99 43.12 42.77 43.77 44.04 46.39 47.42
28.38 29.47 30.04 30.29 31.06 31.34 32.27 32.32 32.45 33.47 33.78 32.88 33.38 34.23 33.85 33.80 36.07 37.61 37.26 37.54 38.11 38.57 38.54 37.99 37.31 37.26 36.92 37.45 37.92 38.59 39.35 39.93 39.80 41.94 42.36 41.79 42.28 43.04 43.64 45.30 46.03 46.54 46.72
29.23 29.69 30.00 30.80 31.31 31.33 31.46 32.11 35.09 35.61 36.25 36.24 36.21 36.01 36.84 37.15 37.15 37.16 36.92 36.80 36.57 36.80 36.57 35.74 35.54 36.13 36.08 36.48 36.71 37.28 38.77 40.10 41.40 43.45 43.40 43.16 43.26 44.07 45.59 47.10 47.17 47.37 48.97
29.85 30.06 30.95 31.13 30.86 31.23 31.84 31.85 31.16 33.98 36.38 36.53 35.98 36.02 36.06 36.08 35.87 35.85 35.83 35.82 36.09 36.69 36.11 36.00 35.41 35.90 36.02 36.77 37.15 37.70 38.33 41.01 43.35 45.82 45.94 46.45 47.26 47.89 47.02 48.54 49.15 49.58 48.83
31.37 32.52 31.49 31.55 31.92 31.93 32.18 31.79 31.99 31.62 31.31 32.54 35.00 35.28 35.49 35.02 34.86 35.06 35.70 36.73 39.10 38.56 37.52 36.90 36.84 37.36 37.69 37.69 38.51 39.36 40.48 42.06 43.28 44.64 46.04 47.65 47.58 47.33 47.51 48.36 48.91 48.99 49.81
31.29 31.47 32.12 31.93 31.60 31.91 31.38 31.19 31.24 31.33 31.03 31.08 31.95 33.46 33.60 33.95 34.40 35.71 37.16 39.88 40.02 39.23 39.93 39.65 40.18 40.47 40.60 40.68 40.56 40.87 41.44 41.90 42.87 44.78 46.97 48.52 48.99 48.57 48.32 49.09 48.72 41.76 45.56
32.13 32.75 32.24 31.33 31.15 30.91 30.78 30.35 30.07 29.81 29.72 29.93 30.20 30.47 32.15 31.73 32.38 34.53 36.51 38.24 39.33 41.05 42.18 42.07 42.16 42.56 42.76 43.28 43.52 44.03 44.19 44.69 45.62 46.92 48.47 49.88 49.91 50.14 49.47 49.85 50.33 49.40 50.34
32.90 32.57 31.65 31.72 31.16 30.97 30.58 30.35 30.37 29.95 29.30 28.95 29.41 31.07 30.98 30.40 31.81 32.96 34.44 35.87 37.08 38.68 40.56 42.82 44.85 45.77 46.31 46.92 46.65 46.75 47.31 48.11 49.13 49.93 48.89 48.79 51.11 51.49 52.11 51.67 50.66 51.31 50.09
32.57 32.63 33.00 31.93 32.09 31.02 30.71 31.11 30.55 29.94 29.65 29.05 29.10 30.11 30.36 30.63 30.93 31.77 33.12 34.23 35.80 37.68 39.77 40.81 42.61 45.68 47.46 48.09 49.35 49.55 49.59 50.43 48.16 48.99 49.37 50.18 50.75 52.52 51.50 51.05 50.58 51.01 48.73
32.18 31.70 31.12 30.69 30.96 30.62 30.34 30.48 30.15 29.72 29.33 29.62 29.55 29.26 29.27 29.16 30.08 30.97 31.64 33.37 34.70 36.28 38.13 39.38 41.14 43.96 47.62 49.90 49.67 48.72 47.37 51.35 48.41 49.55 51.43 52.41 51.63 52.10 51.34 50.76 51.23 49.68 47.74
31.25 30.80 29.84 29.12 28.94 28.81 29.07 29.07 29.20 29.48 29.37 29.42 29.65 29.36 29.01 29.10 29.71 30.13 31.07 32.48 33.76 34.93 36.76 38.65 40.27 42.49 45.45 47.56 47.53 46.95 44.82 42.21 52.15 51.07 52.72 53.46 52.34 50.52 52.86 51.35 51.20 47.42 45.65
30.00 29.63 28.87 28.21 27.94 27.56 27.75 27.86 27.69 28.05 28.64 29.09 29.03 29.06 29.29 29.28 29.52 29.97 30.85 31.55 32.43 33.45 35.45 37.15 39.31 41.17 43.29 44.84 42.71 41.77 38.43 35.04 46.48 45.03 54.75 54.72 53.96 53.91 53.33 52.26 48.26 45.95 44.37
28.82 28.68 28.55 27.62 27.35 27.04 26.85 26.83 26.78 27.34 27.64 28.39 28.84 28.73 29.10 29.07 29.31 29.63 30.43 30.88 31.43 32.83 34.56 36.46 38.14 39.99 41.67 43.68 40.88 35.93 35.37 34.99 38.92 37.41 53.32 53.92 53.80 53.57 52.80 51.40 49.39 46.72 44.66

GFSGL_sfc_wetblb_144.txt.gz
Wetbulb
51.66 51.49 51.23 51.19 51.47 51.20 50.97 51.36 51.35 51.26 51.40 51.83 52.28 52.39 52.44 52.09 51.59 51.44 51.99 52.99 51.55 51.82 52.54 52.71 53.60 55.41 56.40 56.88 57.73 58.27 58.23 57.40 54.93 57.20 58.18 59.87 58.63 58.82 59.99 60.55 61.62 62.88 63.20
51.34 50.95 50.71 50.77 50.60 50.35 50.07 49.77 50.17 50.24 50.74 50.79 50.70 50.49 50.26 49.87 49.66 50.28 50.17 50.05 49.72 49.25 50.13 51.01 50.91 51.64 51.22 52.08 52.89 53.56 55.47 56.94 55.74 53.73 56.36 56.13 56.23 58.20 58.80 58.37 58.91 59.14 59.64
50.01 49.97 49.98 49.60 48.99 48.16 48.05 48.26 49.12 48.49 47.73 47.54 47.61 47.62 47.64 47.78 47.67 47.88 49.20 49.13 48.58 47.86 47.79 48.35 48.60 49.34 49.37 49.20 49.58 49.86 51.40 52.44 54.21 53.02 52.40 56.57 56.53 57.79 57.97 57.88 57.32 58.82 58.90
49.98 48.83 47.77 47.34 46.62 46.01 46.69 46.41 46.04 45.74 45.22 44.86 45.18 45.55 45.48 45.95 45.85 45.77 46.42 47.92 46.38 45.73 46.23 46.75 46.76 46.91 47.34 47.65 47.93 49.24 50.23 50.10 50.06 49.70 49.94 50.15 52.10 55.10 55.86 54.86 55.86 57.16 57.71
47.23 45.88 44.92 45.04 44.92 44.55 43.91 43.99 43.99 43.46 43.16 43.18 43.20 43.69 43.64 43.62 43.54 44.26 44.25 43.74 43.67 43.85 44.45 44.57 45.48 46.14 47.23 47.41 47.02 47.88 49.02 48.27 47.60 46.92 46.60 47.83 48.56 49.81 50.96 53.38 53.16 55.39 56.94
44.16 43.50 43.72 43.54 43.21 42.28 41.95 41.95 41.76 40.77 40.30 40.49 40.18 40.17 40.11 40.39 41.66 42.09 42.22 41.35 41.41 41.06 41.05 42.17 42.54 43.66 43.41 44.02 44.80 45.53 46.14 45.62 45.03 44.71 44.72 45.11 46.82 47.92 49.73 51.44 52.55 52.13 49.92
42.14 42.08 41.38 41.09 40.23 39.79 39.68 39.36 39.08 38.05 37.87 37.04 37.15 37.18 37.55 38.38 39.63 40.45 41.57 41.42 40.67 40.42 40.65 40.70 41.46 42.72 43.79 43.30 43.79 44.40 45.30 45.78 46.20 45.57 44.31 45.21 45.45 47.44 48.96 48.47 49.81 50.69 50.46
39.47 39.32 39.41 38.71 37.86 37.60 37.06 36.44 36.22 35.34 34.49 34.26 35.02 36.00 36.58 37.99 39.91 39.80 40.59 41.01 40.31 40.41 40.50 40.64 40.69 41.16 41.64 42.59 43.11 42.29 43.02 44.93 46.46 46.19 46.05 45.98 46.54 47.45 46.77 46.62 45.74 46.79 49.44
37.92 37.26 36.92 36.78 35.90 34.86 33.93 33.34 33.32 32.48 32.84 33.32 35.05 36.07 37.58 38.72 39.01 39.71 40.00 39.45 39.17 39.36 40.31 41.05 40.92 41.15 41.33 40.76 40.83 40.51 41.94 43.95 45.78 44.94 44.57 43.91 42.88 42.35 43.38 43.15 41.54 42.02 43.22
36.19 35.41 35.38 34.92 33.63 32.32 31.98 31.89 32.15 32.65 33.98 35.66 35.92 37.75 38.57 37.99 38.29 38.04 38.71 38.78 37.88 38.53 39.67 40.38 41.10 40.86 40.43 39.98 40.50 40.51 39.71 40.79 42.69 43.23 43.98 44.11 43.63 44.22 43.66 44.02 43.56 41.44 42.26
34.72 33.84 33.10 32.70 31.51 31.57 31.59 31.77 32.52 34.15 34.18 34.03 35.43 36.74 36.75 36.89 37.43 37.90 38.64 38.38 37.82 37.60 38.00 38.42 39.96 40.19 39.69 39.43 39.69 40.69 40.13 41.51 41.67 42.12 42.22 42.72 43.76 44.40 44.77 45.78 46.00 44.22 43.17
32.86 31.50 30.43 30.13 30.31 31.18 30.48 31.27 32.34 32.95 33.66 34.04 34.76 35.57 36.75 37.32 37.61 38.13 38.61 38.58 39.24 38.17 38.11 39.20 39.96 39.34 38.93 38.92 39.24 39.39 38.88 40.20 41.09 40.72 40.34 40.45 41.52 42.41 44.03 45.03 46.24 46.46 46.19
30.11 29.12 29.60 30.39 30.95 31.15 30.82 32.41 32.53 33.44 33.12 33.10 33.55 34.14 35.19 36.74 37.07 38.14 38.57 38.45 39.02 38.70 39.68 40.26 39.81 39.30 39.02 39.32 39.64 39.36 39.61 40.18 39.84 39.28 39.20 40.00 41.54 42.92 43.72 44.66 45.98 45.99 45.87
28.80 29.43 31.04 31.11 32.39 32.54 33.34 33.45 32.76 32.70 32.49 32.69 33.12 33.76 34.58 35.79 36.69 37.29 37.85 38.05 38.66 38.86 39.61 39.63 40.23 39.63 39.15 39.58 39.71 39.79 40.34 40.03 39.43 39.22 39.64 41.20 42.42 42.52 42.77 44.03 43.27 43.87 43.90
30.25 31.04 31.29 31.69 32.15 32.32 32.96 33.32 33.41 34.44 34.38 33.67 34.29 34.98 34.43 34.32 35.66 36.97 36.73 36.22 36.65 37.11 37.31 38.11 38.34 38.00 37.42 37.84 38.14 38.96 39.33 39.45 38.71 39.82 40.17 40.49 41.67 42.93 42.93 44.02 43.58 43.37 42.87
31.07 30.86 31.54 32.30 32.02 32.24 32.22 32.90 35.49 35.63 36.00 35.99 36.03 35.90 36.21 36.43 36.28 35.88 35.68 35.80 35.97 36.16 37.16 36.90 36.92 37.13 36.71 36.94 37.15 37.53 38.68 39.02 39.53 40.39 41.10 41.79 42.88 42.75 42.90 44.07 44.58 44.12 43.77
31.31 31.78 32.01 32.11 31.93 31.42 31.76 31.24 30.24 32.95 35.31 35.50 35.17 35.07 35.19 35.30 34.82 34.65 35.32 35.85 36.26 36.70 38.20 38.92 38.23 38.18 38.28 38.32 38.17 38.33 38.28 39.81 41.36 41.80 42.73 44.51 44.68 44.48 43.59 45.04 46.11 46.36 45.94
32.44 33.19 32.04 31.62 31.71 31.69 31.49 31.36 31.28 30.20 29.58 30.63 33.34 33.76 34.28 34.00 33.76 34.67 35.77 37.41 39.68 40.54 41.26 40.89 40.53 40.89 41.02 40.48 40.44 39.82 40.00 41.35 42.15 42.80 43.50 44.62 46.32 46.91 46.74 46.99 48.26 48.89 49.14
33.10 32.80 32.99 32.52 32.10 32.49 32.07 31.54 31.45 31.07 30.52 30.18 30.90 32.12 32.78 32.83 33.59 34.78 35.51 36.72 37.19 38.24 39.45 39.90 41.48 42.86 43.73 43.65 43.19 42.66 42.11 42.04 42.30 43.28 43.93 45.05 46.82 48.17 47.58 48.38 48.57 41.65 44.35
33.22 34.16 33.82 33.05 32.13 31.70 31.43 30.90 30.71 30.59 30.30 29.96 29.86 30.20 31.43 30.99 31.00 32.23 34.15 35.16 35.54 36.51 37.47 38.55 39.84 41.17 43.11 45.37 47.26 47.06 45.40 45.16 45.31 45.73 46.19 47.08 49.29 49.83 49.61 50.02 49.52 48.39 48.64
32.61 32.47 31.49 31.80 31.67 31.39 31.00 30.51 30.67 30.06 29.57 29.61 30.07 31.18 30.54 29.92 30.19 31.08 32.10 33.14 34.24 34.69 35.76 37.38 38.54 39.89 41.85 44.77 48.06 47.94 48.32 48.52 48.66 49.08 50.54 50.11 51.16 50.44 50.35 50.62 50.61 50.48 50.14
32.38 32.10 31.24 30.46 30.43 29.96 30.15 30.38 29.86 29.54 29.52 29.37 29.70 30.44 30.37 30.51 30.27 30.53 31.28 32.29 33.61 34.37 36.25 36.92 38.03 39.72 42.14 44.09 45.06 44.95 45.24 46.18 51.26 51.99 51.81 51.81 51.44 52.44 51.60 51.39 51.37 50.63 48.50
31.88 30.76 29.64 29.49 29.63 28.80 29.19 29.10 28.81 28.79 28.88 29.25 29.57 29.44 29.37 29.59 29.80 30.17 30.79 31.89 32.75 33.34 34.98 36.50 37.77 39.07 41.17 42.73 45.19 42.63 41.80 40.54 42.77 51.77 52.52 53.18 53.24 52.54 52.49 52.01 50.86 49.20 48.21
30.72 29.84 28.47 28.35 28.09 27.90 28.26 27.96 28.40 28.00 28.29 28.65 28.99 28.87 28.95 29.35 29.61 29.63 30.75 31.59 32.13 33.04 34.45 35.88 37.19 38.38 39.85 40.80 43.31 40.73 39.87 37.14 41.87 53.10 54.49 54.02 52.70 51.58 53.69 51.95 50.89 48.78 46.56
28.92 28.30 27.77 26.98 26.38 26.33 26.74 27.27 27.72 27.85 28.02 27.91 28.19 28.62 28.62 28.80 28.88 29.39 30.13 30.89 31.46 32.38 33.72 34.43 36.38 37.33 38.64 39.77 40.24 37.27 35.50 33.76 37.94 37.16 55.24 54.49 54.15 54.24 52.19 50.85 49.58 47.76 45.66
28.09 27.20 26.91 26.71 26.04 25.54 25.61 25.90 26.29 26.87 27.12 27.87 28.13 28.02 28.31 28.06 28.32 28.73 29.09 29.54 30.56 31.83 32.42 34.02 35.11 36.53 37.46 38.79 36.88 34.27 33.84 33.73 35.23 34.64 46.46 55.58 54.71 54.48 52.76 50.46 49.23 47.79 46.43

GFSGL_sfc_wetblb_147.txt.gz
Wetbulb
59.51 59.52 59.32 58.83 58.63 58.46 58.57 58.00 57.67 58.03 57.60 57.07 56.61 56.34 55.96 55.30 55.50 55.25 55.12 54.74 54.27 54.75 55.20 54.80 55.03 56.77 55.67 56.47 56.65 56.66 56.62 57.24 55.29 57.32 60.13 62.90 63.76 64.38 64.93 65.68 65.22 65.28 64.48
58.30 57.93 57.47 57.73 57.32 57.07 56.40 56.02 56.35 55.94 55.30 54.41 53.82 53.42 53.49 53.46 53.80 53.14 52.42 52.37 51.98 52.05 52.62 52.48 51.89 52.38 53.92 55.03 54.74 55.18 55.12 56.13 55.32 53.66 56.62 57.44 59.57 61.73 63.33 63.81 63.86 64.14 64.27
57.47 57.37 56.66 56.00 55.81 55.12 54.73 54.55 54.06 53.11 52.79 52.40 52.00 51.63 51.38 51.40 51.08 51.15 50.60 50.09 49.98 50.74 51.25 50.69 49.87 50.45 50.72 51.10 52.38 52.34 52.99 53.69 54.11 53.02 52.98 55.20 56.18 57.77 58.73 60.88 62.44 63.54 63.49
55.75 55.16 54.32 53.70 53.23 52.61 52.21 51.72 51.14 50.81 50.35 50.08 50.16 49.70 49.45 49.30 48.83 48.53 48.45 48.33 48.65 48.90 49.20 49.36 49.43 49.45 49.69 50.26 50.26 50.58 50.79 50.45 51.04 51.20 51.49 52.02 53.46 55.38 55.51 54.66 54.90 58.26 59.36
53.04 52.30 51.23 50.79 50.49 49.99 49.66 49.24 49.02 48.94 48.29 47.90 47.24 47.20 47.22 46.76 46.36 45.53 45.59 46.24 46.92 47.42 48.08 48.04 48.85 48.89 47.51 47.72 47.75 49.30 49.23 47.93 49.18 49.87 49.66 50.06 50.26 50.95 51.11 53.10 53.04 54.65 57.33
50.21 48.98 48.75 48.53 48.35 47.62 47.22 46.74 46.56 46.45 46.09 45.31 44.88 44.47 44.57 44.90 42.40 41.06 42.33 44.86 45.71 45.88 46.31 47.25 48.12 47.35 47.28 45.51 45.21 45.45 45.85 45.49 45.36 45.37 45.36 46.23 48.99 50.17 51.49 51.33 51.78 51.13 49.98
47.51 46.83 46.25 45.87 45.28 45.10 44.65 44.24 43.92 43.12 43.15 42.79 43.14 43.41 43.88 44.64 41.08 40.21 41.18 42.70 43.05 44.29 44.34 44.39 44.66 46.84 46.74 46.81 45.47 44.47 44.89 45.44 45.47 45.02 43.98 45.02 45.68 47.82 49.05 47.99 48.71 49.10 49.73
45.21 44.47 43.98 43.15 42.61 42.92 42.26 41.95 41.53 41.35 41.20 41.33 41.87 42.84 43.31 44.02 40.93 40.19 40.30 42.98 42.80 43.30 43.47 43.34 43.02 43.66 45.16 43.84 42.78 42.77 44.27 45.31 45.64 45.80 46.45 47.13 48.17 48.54 48.45 48.14 47.59 46.49 47.06
41.94 41.59 41.12 40.59 40.07 39.99 39.77 39.65 40.10 39.76 40.15 39.81 40.78 42.49 42.04 41.08 40.56 39.33 39.78 43.04 42.61 42.06 43.26 43.81 43.31 42.69 41.73 40.74 41.21 40.81 41.73 42.58 44.66 44.31 44.75 43.75 42.66 42.39 44.34 45.25 42.77 41.72 41.64
38.66 38.93 39.27 38.98 38.26 37.97 38.43 38.72 39.66 39.59 39.42 40.80 41.48 41.28 41.04 43.04 40.94 38.78 39.59 40.17 39.66 39.92 40.87 41.68 42.22 42.08 40.13 39.83 40.59 40.37 39.75 40.92 42.75 43.49 44.31 44.24 44.47 45.87 44.39 44.90 43.40 40.69 41.70
37.72 38.07 37.86 37.79 37.35 37.91 38.16 39.16 39.00 38.90 36.78 38.64 40.32 42.39 43.59 43.02 42.57 38.70 38.78 38.66 38.84 38.51 39.17 40.34 42.79 40.83 39.71 39.18 39.36 41.13 40.15 41.56 41.76 42.31 42.24 42.78 43.27 44.04 45.32 47.31 47.60 44.62 42.27
36.83 36.11 36.00 36.23 36.39 36.99 37.45 38.08 38.42 36.16 37.01 38.60 39.22 41.15 41.14 41.39 39.80 39.05 38.34 38.36 39.41 38.77 39.00 39.89 40.67 39.76 38.90 38.79 39.23 39.41 38.92 39.93 40.89 40.61 40.57 40.58 41.55 42.50 44.18 46.15 47.75 48.50 48.73
33.48 34.23 35.05 35.43 36.08 36.80 37.03 35.57 35.41 36.28 35.92 37.40 37.63 37.14 37.46 39.26 39.35 38.98 38.69 38.14 38.59 39.06 39.91 40.10 39.54 38.92 38.85 39.75 39.62 39.50 39.36 41.39 40.97 39.81 39.23 39.78 41.88 43.69 44.73 45.56 46.64 47.27 47.10
33.67 34.62 35.38 35.40 35.18 35.54 35.96 36.10 35.10 35.07 34.83 34.86 34.83 35.08 36.37 37.46 38.18 40.27 38.47 39.13 38.98 39.67 40.08 39.53 39.67 39.58 39.26 39.94 39.96 40.36 41.12 41.03 40.25 39.65 39.23 40.65 42.20 42.55 42.77 44.51 43.85 44.12 44.44
34.05 34.06 33.70 34.24 34.57 33.94 34.88 34.91 34.87 35.92 35.69 34.47 34.60 35.36 35.25 34.82 36.86 36.43 35.78 36.65 38.13 38.30 37.55 38.87 40.22 40.49 39.75 39.80 39.83 40.24 40.64 40.64 39.70 40.30 39.85 39.83 40.50 41.40 41.82 43.36 43.52 43.63 42.76
33.35 32.51 33.36 33.51 33.90 34.45 33.55 33.30 35.69 35.52 35.45 35.49 35.45 35.11 35.34 35.49 35.07 34.63 34.89 35.47 35.93 36.37 38.39 40.33 41.09 41.20 40.43 40.48 40.28 40.30 40.51 40.25 40.22 40.47 40.09 40.25 40.32 41.07 42.13 44.01 44.37 43.32 42.53
33.79 33.19 33.16 33.01 32.88 33.25 32.89 32.90 32.06 34.36 35.21 34.97 34.07 34.10 34.48 33.83 33.91 34.13 35.01 35.31 36.14 38.23 41.18 40.95 41.08 41.22 41.69 42.72 42.53 42.00 41.02 41.47 42.17 41.72 41.23 41.89 42.73 43.84 43.01 43.54 44.12 43.90 43.31
35.17 34.96 34.48 33.59 33.39 33.40 33.15 33.18 32.91 32.52 33.27 33.41 34.26 33.98 33.61 33.62 33.39 34.08 34.85 37.30 40.87 42.26 40.05 39.03 39.08 39.83 40.63 41.57 43.26 44.83 43.97 43.56 42.11 42.30 42.40 43.06 43.64 44.41 45.79 46.16 47.11 46.49 45.66
34.57 34.00 34.71 34.49 34.02 34.39 34.47 33.05 32.74 32.03 32.38 31.86 33.31 33.71 34.33 33.28 33.80 34.19 34.76 36.41 37.39 38.68 36.69 36.82 38.18 39.03 39.78 41.11 42.71 45.62 46.54 45.95 44.49 43.58 43.51 44.06 45.04 45.92 46.42 47.82 48.05 40.97 44.91
34.22 33.58 33.49 33.66 33.89 33.54 33.51 32.02 32.55 31.12 31.22 31.41 31.49 32.07 33.05 32.75 32.32 32.65 34.00 34.99 36.95 35.81 35.16 35.52 36.89 38.05 39.71 41.06 42.11 44.28 43.13 45.18 48.09 47.35 45.15 44.75 46.23 47.92 49.08 50.59 49.39 48.89 50.04
33.80 33.79 32.01 33.54 32.88 32.67 32.04 31.74 32.69 31.29 31.16 31.01 31.51 32.30 30.79 31.41 30.88 31.38 32.38 33.59 34.81 34.60 33.98 34.85 35.71 37.26 39.08 40.33 41.22 42.82 41.18 42.08 44.26 49.44 51.50 51.31 50.16 50.36 50.75 52.99 51.28 50.57 50.57
33.34 33.10 33.13 32.30 32.24 31.00 30.82 31.85 32.00 31.38 30.77 30.65 30.96 31.70 30.53 31.30 30.91 30.93 31.18 32.49 33.75 35.29 34.84 35.02 35.80 37.22 38.67 39.75 40.11 41.28 39.24 39.19 39.71 42.73 49.20 52.82 52.85 51.62 50.92 51.12 51.11 50.99 48.54
33.11 33.04 32.52 31.96 30.74 30.19 30.29 30.96 31.42 31.13 31.50 29.93 30.93 31.63 30.47 30.17 30.25 30.47 30.72 31.71 32.86 34.09 35.04 35.99 36.78 37.50 38.38 39.26 40.63 39.81 37.65 36.71 36.89 39.55 44.07 53.92 53.68 52.47 52.07 51.96 50.90 49.65 48.17
33.08 31.89 31.15 29.91 29.18 29.51 29.24 29.46 29.70 29.81 30.42 30.20 31.56 30.81 29.89 29.85 29.89 29.93 30.40 30.61 31.56 33.42 35.25 36.31 37.82 38.01 37.90 38.03 39.10 37.50 37.13 35.49 37.29 41.07 46.29 54.69 53.59 52.57 53.73 51.54 50.13 48.05 46.22
31.80 30.89 29.85 28.47 28.17 28.27 28.78 29.16 29.42 29.51 29.41 29.38 29.51 30.32 30.24 30.54 29.83 30.34 30.24 30.29 31.01 32.12 33.34 34.56 35.93 37.42 37.96 37.21 36.40 34.63 33.73 32.84 35.16 34.50 44.10 55.46 55.25 54.95 53.64 52.44 49.38 46.35 45.60
31.56 30.78 29.27 28.65 27.91 27.86 27.94 27.87 28.31 28.20 28.07 28.66 29.02 29.13 29.24 29.74 29.19 29.81 30.20 31.24 30.23 30.91 31.84 33.28 34.26 35.16 36.56 36.08 34.17 32.26 32.63 32.60 33.91 33.40 40.17 55.18 55.56 55.28 54.81 53.24 49.64 51.29 47.21